DB0MGN-WX Weather Reports


time (UTC)temp
F
wind
direction
speed
knots
gust
knots
rain 1hr
in
rain 24hr
in
rain mn
in
humidity
%
barometer
mb
20260508102959 55 245 1.7 0.0 0.00 0.00 0.00 57 1018.2
20260508102859 55 53 0.9 0.0 0.00 0.00 0.00 57 1018.2
20260508102759 55 26 2.6 0.0 0.00 0.00 0.00 56 1018.3
20260508102659 55 31 1.7 0.0 0.00 0.00 0.00 55 1018.2
20260508102559 55 315 1.7 0.0 0.00 0.00 0.00 55 1018.2
20260508102459 55 318 1.7 0.0 0.00 0.00 0.00 55 1018.2
20260508102359 55 263 0.9 0.0 0.00 0.00 0.00 55 1018.2
20260508102259 55 302 1.7 0.0 0.00 0.00 0.00 56 1018.3
20260508102159 55 252 1.7 0.0 0.00 0.00 0.00 56 1018.2
20260508102059 55 285 0.9 0.0 0.00 0.00 0.00 55 1018.2
20260508101959 55 261 1.7 0.0 0.00 0.00 0.00 56 1018.3
20260508101858 55 256 2.6 0.0 0.00 0.00 0.00 59 1018.3
20260508101758 55 38 0.0 0.0 0.00 0.00 0.00 60 1018.2
20260508101658 55 117 0.0 0.0 0.00 0.00 0.00 59 1018.2
20260508101558 55 65 0.9 0.0 0.00 0.00 0.00 59 1018.2
20260508101458 54 80 0.9 0.0 0.00 0.00 0.00 60 1018.2
20260508101358 54 57 0.0 0.0 0.00 0.00 0.00 60 1018.1
20260508101258 55 44 0.9 0.0 0.00 0.00 0.00 60 1018.3
20260508101158 55 80 0.9 0.0 0.00 0.00 0.00 59 1018.2
20260508101058 55 65 0.9 0.0 0.00 0.00 0.00 59 1018.3
20260508100958 55 52 1.7 0.0 0.00 0.00 0.00 59 1018.3
20260508100858 55 338 1.7 0.0 0.00 0.00 0.00 60 1018.4
20260508100758 55 308 0.9 0.0 0.00 0.00 0.00 61 1018.2
20260508100658 55 108 0.0 0.0 0.00 0.00 0.00 60 1018.3
20260508100558 55 259 0.9 0.0 0.00 0.00 0.00 59 1018.2
20260508100458 55 265 2.6 0.0 0.00 0.00 0.00 59 1018.2
20260508100358 56 282 2.6 0.0 0.00 0.00 0.00 58 1018.3
20260508100257 56 257 6.1 0.0 0.00 0.00 0.00 59 1018.3
20260508100157 56 328 1.7 0.0 0.00 0.00 0.00 59 1018.3
20260508100057 56 250 1.7 0.0 0.00 0.00 0.00 60 1018.3
20260508095957 57 236 0.9 0.0 0.00 0.00 0.00 59 1018.3
20260508095857 57 253 1.7 0.0 0.00 0.00 0.00 58 1018.2
20260508095757 57 252 4.3 0.0 0.00 0.00 0.00 59 1018.3
20260508095657 57 260 1.7 0.0 0.00 0.00 0.00 60 1018.3
20260508095557 57 280 0.9 0.0 0.00 0.00 0.00 59 1018.3
20260508095457 57 153 0.9 0.0 0.00 0.00 0.00 59 1018.3
20260508095357 57 207 1.7 0.0 0.00 0.00 0.00 58 1018.3
20260508095257 57 165 1.7 0.0 0.00 0.00 0.00 59 1018.3
20260508095157 57 156 0.9 0.0 0.00 0.00 0.00 59 1018.3
20260508095057 57 161 3.5 0.0 0.00 0.00 0.00 58 1018.4
20260508094957 56 96 1.7 0.0 0.00 0.00 0.00 59 1018.3
20260508094857 57 157 1.7 0.0 0.00 0.00 0.00 58 1018.3
20260508094757 57 319 3.5 0.0 0.00 0.00 0.00 57 1018.4
20260508094657 57 305 2.6 0.0 0.00 0.00 0.00 58 1018.3
20260508094556 57 255 2.6 0.0 0.00 0.00 0.00 59 1018.4
20260508094456 57 281 2.6 0.0 0.00 0.00 0.00 60 1018.3
20260508094356 57 337 0.9 0.0 0.00 0.00 0.00 59 1018.4
20260508094256 57 40 2.6 0.0 0.00 0.00 0.00 60 1018.4
20260508094156 56 312 2.6 0.0 0.00 0.00 0.00 62 1018.5
20260508094056 56 261 0.9 0.0 0.00 0.00 0.00 61 1018.4
20260508093956 57 125 2.6 0.0 0.00 0.00 0.00 60 1018.5
20260508093856 56 262 4.3 0.0 0.00 0.00 0.00 65 1018.5
20260508093756 56 216 0.9 0.0 0.00 0.00 0.00 67 1018.5
20260508093656 55 222 0.9 0.0 0.00 0.00 0.00 65 1018.5
20260508093556 55 101 0.9 0.0 0.00 0.00 0.00 65 1018.5
20260508093456 55 152 2.6 0.0 0.00 0.00 0.00 64 1018.5
20260508093356 55 156 1.7 0.0 0.00 0.00 0.00 64 1018.5
20260508093256 54 70 1.7 0.0 0.00 0.00 0.00 67 1018.6
20260508093156 54 118 2.6 0.0 0.00 0.00 0.00 67 1018.6
20260508093056 54 116 0.9 0.0 0.00 0.00 0.00 65 1018.5
20260508092955 54 189 3.5 0.0 0.00 0.00 0.00 64 1018.6
20260508092856 54 192 3.5 0.0 0.00 0.00 0.00 65 1018.6
20260508092755 54 151 2.6 0.0 0.00 0.00 0.00 67 1018.7
20260508092655 54 321 0.9 0.0 0.00 0.00 0.00 68 1018.6
20260508092555 53 224 0.0 0.0 0.00 0.00 0.00 67 1018.7
20260508092455 53 144 1.7 0.0 0.00 0.00 0.00 67 1018.7
20260508092355 53 155 1.7 0.0 0.00 0.00 0.00 67 1018.6
20260508092255 53 308 1.7 0.0 0.00 0.00 0.00 68 1018.6
20260508092155 53 273 0.9 0.0 0.00 0.00 0.00 68 1018.7
20260508092055 52 193 0.9 0.0 0.00 0.00 0.00 68 1018.6
20260508091955 52 44 0.0 0.0 0.00 0.00 0.00 68 1018.8
20260508091855 52 46 0.0 0.0 0.00 0.00 0.00 67 1018.6
20260508091755 52 93 1.7 0.0 0.00 0.00 0.00 67 1018.7
20260508091655 52 47 0.9 0.0 0.00 0.00 0.00 67 1018.8
20260508091555 52 248 0.9 0.0 0.00 0.00 0.00 67 1018.7
20260508091455 52 238 3.5 0.0 0.00 0.00 0.00 67 1018.8
20260508091354 53 248 1.7 0.0 0.00 0.00 0.00 67 1018.8
20260508091254 53 228 1.7 0.0 0.00 0.00 0.00 67 1018.8
20260508091154 53 245 2.6 0.0 0.00 0.00 0.00 68 1018.8
20260508091054 53 248 1.7 0.0 0.00 0.00 0.00 68 1018.6
20260508090954 53 244 2.6 0.0 0.00 0.00 0.00 69 1018.8
20260508090854 53 289 1.7 0.0 0.00 0.00 0.00 68 1018.7
20260508090754 53 274 2.6 0.0 0.00 0.00 0.00 68 1018.8
20260508090654 53 246 1.7 0.0 0.00 0.00 0.00 67 1018.8
20260508090554 53 248 1.7 0.0 0.00 0.00 0.00 66 1018.8
20260508090454 54 213 1.7 0.0 0.00 0.00 0.00 65 1018.8
20260508090354 54 251 3.5 0.0 0.00 0.00 0.00 65 1018.8
20260508090254 54 260 1.7 0.0 0.00 0.00 0.00 65 1018.8
20260508090154 54 233 0.9 0.0 0.00 0.00 0.00 65 1018.8
20260508090054 54 229 0.9 0.0 0.00 0.00 0.00 66 1018.8
20260508085954 54 37 1.7 0.0 0.00 0.00 0.00 67 1018.7
20260508085854 54 26 1.7 0.0 0.00 0.00 0.00 68 1018.7
20260508085754 54 291 0.9 0.0 0.00 0.00 0.00 68 1018.8
20260508085653 54 246 0.9 0.0 0.00 0.00 0.00 68 1018.7
20260508085553 54 223 0.9 0.0 0.00 0.00 0.00 66 1018.7
20260508085453 54 290 0.9 0.0 0.00 0.00 0.00 66 1018.7
20260508085353 54 334 2.6 0.0 0.00 0.00 0.00 66 1018.6
20260508085253 54 220 0.9 0.0 0.00 0.00 0.00 66 1018.8
20260508085153 54 346 1.7 0.0 0.00 0.00 0.00 65 1018.7
20260508085053 54 232 1.7 0.0 0.00 0.00 0.00 65 1018.7
20260508084953 54 124 1.7 0.0 0.00 0.00 0.00 67 1018.7
20260508084853 54 321 1.7 0.0 0.00 0.00 0.00 67 1018.8
20260508084753 54 311 2.6 0.0 0.00 0.00 0.00 67 1018.8
20260508084653 54 253 1.7 0.0 0.00 0.00 0.00 67 1018.7
20260508084553 54 240 3.5 0.0 0.00 0.00 0.00 67 1018.7
20260508084453 54 294 1.7 0.0 0.00 0.00 0.00 66 1018.8
20260508084353 55 224 2.6 0.0 0.00 0.00 0.00 65 1018.8
20260508084253 55 252 1.7 0.0 0.00 0.00 0.00 65 1018.8
20260508084152 54 247 0.9 0.0 0.00 0.00 0.00 64 1018.8
20260508084052 54 37 0.0 0.0 0.00 0.00 0.00 63 1018.8
20260508083952 54 151 0.0 0.0 0.00 0.00 0.00 61 1018.9
20260508083852 54 38 0.9 0.0 0.00 0.00 0.00 61 1018.9
20260508083752 54 264 1.7 0.0 0.00 0.00 0.00 61 1018.8
20260508083652 54 173 0.0 0.0 0.00 0.00 0.00 59 1018.8
20260508083552 54 55 1.7 0.0 0.00 0.00 0.00 58 1018.8
20260508083452 55 71 1.7 0.0 0.00 0.00 0.00 58 1018.8
20260508083352 55 153 1.7 0.0 0.00 0.00 0.00 59 1018.7
20260508083252 55 163 1.7 0.0 0.00 0.00 0.00 61 1018.7
20260508083152 55 170 0.9 0.0 0.00 0.00 0.00 60 1018.7
20260508083052 55 296 1.7 0.0 0.00 0.00 0.00 59 1018.8
20260508082952 55 283 1.7 0.0 0.00 0.00 0.00 59 1018.8
20260508082852 55 305 1.7 0.0 0.00 0.00 0.00 61 1018.8
20260508082752 55 40 2.6 0.0 0.00 0.00 0.00 63 1018.8
20260508082652 55 156 1.7 0.0 0.00 0.00 0.00 63 1018.7
20260508082552 55 346 2.6 0.0 0.00 0.00 0.00 65 1018.8
20260508082451 56 100 1.7 0.0 0.00 0.00 0.00 65 1018.8
20260508082351 56 166 2.6 0.0 0.00 0.00 0.00 65 1018.7
20260508082251 56 168 1.7 0.0 0.00 0.00 0.00 65 1018.7
20260508082151 56 231 1.7 0.0 0.00 0.00 0.00 63 1018.7
20260508082051 56 318 1.7 0.0 0.00 0.00 0.00 64 1018.7
20260508081951 55 243 0.9 0.0 0.00 0.00 0.00 65 1018.7
20260508081851 55 156 0.9 0.0 0.00 0.00 0.00 67 1018.7
20260508081751 54 243 0.9 0.0 0.00 0.00 0.00 69 1018.7
20260508081651 54 111 0.9 0.0 0.00 0.00 0.00 69 1018.7
20260508081551 54 312 0.9 0.0 0.00 0.00 0.00 68 1018.7
20260508081451 54 168 3.5 0.0 0.00 0.00 0.00 68 1018.6
20260508081351 54 202 1.7 0.0 0.00 0.00 0.00 68 1018.7
20260508081251 54 334 1.7 0.0 0.00 0.00 0.00 69 1018.7
20260508081151 54 89 1.7 0.0 0.00 0.00 0.00 69 1018.6
20260508081051 54 139 2.6 0.0 0.00 0.00 0.00 70 1018.7
20260508080951 54 157 2.6 0.0 0.00 0.00 0.00 73 1018.7
20260508080851 54 67 1.7 0.0 0.00 0.00 0.00 74 1018.7
20260508080750 53 135 1.7 0.0 0.00 0.00 0.00 76 1018.6
20260508080650 53 180 0.9 0.0 0.00 0.00 0.00 76 1018.7
20260508080550 52 160 0.9 0.0 0.00 0.00 0.00 75 1018.7
20260508080450 52 135 0.9 0.0 0.00 0.00 0.00 75 1018.8
20260508080350 51 108 1.7 0.0 0.00 0.00 0.00 78 1018.6
20260508080250 51 168 0.9 0.0 0.00 0.00 0.00 78 1018.7
20260508080150 50 184 0.9 0.0 0.00 0.00 0.00 78 1018.6
20260508080050 50 353 1.7 0.0 0.00 0.00 0.00 78 1018.7
20260508075950 50 277 1.7 0.0 0.00 0.00 0.00 79 1018.7
20260508075850 50 113 0.0 0.0 0.00 0.00 0.00 79 1018.5
20260508075750 50 105 1.7 0.0 0.00 0.00 0.00 79 1018.6
20260508075650 50 248 1.7 0.0 0.00 0.00 0.00 80 1018.6
20260508075550 49 327 0.9 0.0 0.00 0.00 0.00 79 1018.6
20260508075450 50 299 1.7 0.0 0.00 0.00 0.00 79 1018.7
20260508075350 50 16 0.9 0.0 0.00 0.00 0.00 79 1018.7
20260508075250 50 283 2.6 0.0 0.00 0.00 0.00 81 1018.6
20260508075149 50 278 1.7 0.0 0.00 0.00 0.00 82 1018.6
20260508075049 50 332 1.7 0.0 0.00 0.00 0.00 82 1018.6
20260508074949 50 353 0.9 0.0 0.00 0.00 0.00 82 1018.7
20260508074849 50 267 1.7 0.0 0.00 0.00 0.00 82 1018.8
20260508074749 50 222 1.7 0.0 0.00 0.00 0.00 82 1018.7
20260508074649 50 289 1.7 0.0 0.00 0.00 0.00 83 1018.7
20260508074549 50 195 0.0 0.0 0.00 0.00 0.00 83 1018.6
20260508074449 50 297 0.0 0.0 0.00 0.00 0.00 83 1018.7
20260508074349 50 289 0.9 0.0 0.00 0.00 0.00 83 1018.7
20260508074249 50 269 0.0 0.0 0.00 0.00 0.00 83 1018.7
20260508074149 49 214 0.9 0.0 0.00 0.00 0.00 84 1018.6
20260508074049 49 248 0.9 0.0 0.00 0.00 0.00 84 1018.7
20260508073949 49 294 0.9 0.0 0.00 0.00 0.00 84 1018.6
20260508073849 49 17 1.7 0.0 0.00 0.00 0.00 85 1018.7
20260508073749 49 117 0.0 0.0 0.00 0.00 0.00 84 1018.6
20260508073649 49 120 0.9 0.0 0.00 0.00 0.00 84 1018.7
20260508073548 49 42 2.6 0.0 0.00 0.00 0.00 83 1018.7
20260508073448 49 325 0.9 0.0 0.00 0.00 0.00 84 1018.6
20260508073348 49 23 0.9 0.0 0.00 0.00 0.00 84 1018.7
20260508073248 49 141 1.7 0.0 0.00 0.00 0.00 85 1018.7
20260508073148 49 289 0.9 0.0 0.00 0.00 0.00 85 1018.7
20260508073048 49 35 0.0 0.0 0.00 0.00 0.00 86 1018.7
20260508072948 49 230 0.0 0.0 0.00 0.00 0.00 86 1018.6
20260508072848 49 306 0.0 0.0 0.00 0.00 0.00 85 1018.7
20260508072748 49 306 0.0 0.0 0.00 0.00 0.00 86 1018.6
20260508072648 49 272 0.9 0.0 0.00 0.00 0.00 86 1018.6
20260508072548 49 138 0.9 0.0 0.00 0.00 0.00 87 1018.6
20260508072448 49 282 0.9 0.0 0.00 0.00 0.00 87 1018.7
20260508072348 49 147 0.9 0.0 0.00 0.00 0.00 87 1018.5
20260508072248 49 162 0.9 0.0 0.00 0.00 0.00 87 1018.6
20260508072148 49 230 0.0 0.0 0.00 0.00 0.00 87 1018.6
20260508072048 48 38 0.9 0.0 0.00 0.00 0.00 87 1018.6
20260508071948 48 52 0.0 0.0 0.00 0.00 0.00 87 1018.6
20260508071847 48 345 0.0 0.0 0.00 0.00 0.00 87 1018.6
20260508071747 48 357 0.9 0.0 0.00 0.00 0.00 87 1018.5
20260508071647 48 315 0.0 0.0 0.00 0.00 0.00 88 1018.6
20260508071547 48 280 0.9 0.0 0.00 0.00 0.00 88 1018.6
20260508071447 48 14 0.9 0.0 0.00 0.00 0.00 88 1018.6
20260508071347 48 50 0.0 0.0 0.00 0.00 0.00 88 1018.6
20260508071247 48 126 0.0 0.0 0.00 0.00 0.00 88 1018.6
20260508071147 48 19 0.9 0.0 0.00 0.00 0.00 88 1018.7
20260508071047 48 74 0.9 0.0 0.00 0.00 0.00 88 1018.6
20260508070947 48 84 0.9 0.0 0.00 0.00 0.00 89 1018.7
20260508070847 48 119 0.9 0.0 0.00 0.00 0.00 89 1018.7
20260508070747 48 329 0.9 0.0 0.00 0.00 0.00 88 1018.7
20260508070647 48 228 0.9 0.0 0.00 0.00 0.00 88 1018.6
20260508070547 48 166 0.0 0.0 0.00 0.00 0.00 88 1018.6
20260508070447 48 223 1.7 0.0 0.00 0.00 0.00 88 1018.7
20260508070347 48 306 0.9 0.0 0.00 0.00 0.00 89 1018.6
20260508070246 48 102 0.9 0.0 0.00 0.00 0.00 89 1018.5
20260508070146 48 326 0.9 0.0 0.00 0.00 0.00 89 1018.7
20260508070046 48 33 0.9 0.0 0.00 0.00 0.00 89 1018.6
20260508065946 48 63 0.9 0.0 0.00 0.00 0.00 89 1018.6
20260508065846 48 148 0.9 0.0 0.00 0.00 0.00 89 1018.5
20260508065746 48 150 0.9 0.0 0.00 0.00 0.00 89 1018.5
20260508065646 48 103 0.9 0.0 0.00 0.00 0.00 89 1018.5
20260508065546 48 196 0.9 0.0 0.00 0.00 0.00 89 1018.5
20260508065446 48 124 0.0 0.0 0.00 0.00 0.00 90 1018.5
20260508065346 48 321 0.0 0.0 0.00 0.00 0.00 90 1018.5
20260508065246 48 315 0.9 0.0 0.00 0.00 0.00 89 1018.5
20260508065146 48 86 0.9 0.0 0.00 0.00 0.00 89 1018.5
20260508065046 48 141 0.0 0.0 0.00 0.00 0.00 89 1018.4
20260508064946 48 205 0.9 0.0 0.00 0.00 0.00 89 1018.5
20260508064846 48 219 0.9 0.0 0.00 0.00 0.00 90 1018.5
20260508064746 48 247 0.0 0.0 0.00 0.00 0.00 90 1018.5
20260508064646 48 336 0.9 0.0 0.00 0.00 0.00 90 1018.5
20260508064545 47 174 0.9 0.0 0.00 0.00 0.00 90 1018.5
20260508064445 47 126 0.0 0.0 0.00 0.00 0.00 90 1018.5
20260508064345 47 133 0.9 0.0 0.00 0.00 0.00 90 1018.5
20260508064245 47 318 0.9 0.0 0.00 0.00 0.00 90 1018.5
20260508064145 47 135 0.0 0.0 0.00 0.00 0.00 90 1018.4
20260508064045 47 55 0.0 0.0 0.00 0.00 0.00 90 1018.4
20260508063945 47 20 0.0 0.0 0.00 0.00 0.00 90 1018.4
20260508063845 47 37 0.9 0.0 0.00 0.00 0.00 90 1018.4
20260508063745 47 263 0.9 0.0 0.00 0.00 0.00 90 1018.4
20260508063645 47 40 0.9 0.0 0.00 0.00 0.00 90 1018.4
20260508063545 47 93 0.9 0.0 0.00 0.00 0.00 90 1018.5
20260508063445 47 68 0.9 0.0 0.00 0.00 0.00 90 1018.3
20260508063345 47 61 0.9 0.0 0.00 0.00 0.00 90 1018.3
20260508063245 47 124 0.9 0.0 0.00 0.00 0.00 90 1018.3
20260508063145 47 70 0.9 0.0 0.00 0.00 0.00 90 1018.3
20260508063045 47 230 0.0 0.0 0.00 0.00 0.00 90 1018.3
20260508062944 47 304 0.0 0.0 0.00 0.00 0.00 90 1018.2
20260508062844 47 215 0.9 0.0 0.00 0.00 0.00 90 1018.2
20260508062744 47 66 0.0 0.0 0.00 0.00 0.00 90 1018.2
20260508062644 47 42 0.9 0.0 0.00 0.00 0.00 90 1018.3
20260508062544 47 119 0.0 0.0 0.00 0.00 0.00 90 1018.3
20260508062444 47 0 0.0 0.0 0.00 0.00 0.00 90 1018.2
20260508062344 47 325 0.0 0.0 0.00 0.00 0.00 90 1018.2
20260508062244 47 93 0.9 0.0 0.00 0.00 0.00 90 1018.3
20260508062144 47 345 0.0 0.0 0.00 0.00 0.00 90 1018.2
20260508062044 47 102 0.0 0.0 0.00 0.00 0.00 91 1018.3
20260508061944 47 306 0.9 0.0 0.00 0.00 0.00 91 1018.2
20260508061844 47 164 0.9 0.0 0.00 0.00 0.00 91 1018.2
20260508061744 47 76 0.0 0.0 0.00 0.00 0.00 91 1018.2
20260508061644 47 297 0.0 0.0 0.00 0.00 0.00 91 1018.3
20260508061544 47 323 0.9 0.0 0.00 0.00 0.00 91 1018.2
20260508061444 47 119 0.0 0.0 0.00 0.00 0.00 91 1018.2
20260508061344 47 60 0.9 0.0 0.00 0.00 0.00 91 1018.2
20260508061243 47 103 0.9 0.0 0.00 0.00 0.00 91 1018.2
20260508061143 46 269 0.9 0.0 0.00 0.00 0.00 91 1018.1
20260508061043 46 329 0.0 0.0 0.00 0.00 0.00 91 1018.2
20260508060943 46 67 0.0 0.0 0.00 0.00 0.00 91 1018.1
20260508060843 46 113 0.9 0.0 0.00 0.00 0.00 91 1018.0
20260508060743 46 297 0.9 0.0 0.00 0.00 0.00 91 1018.1
20260508060643 46 219 0.9 0.0 0.00 0.00 0.00 92 1018.1
20260508060543 46 63 0.9 0.0 0.00 0.00 0.00 92 1018.0
20260508060443 46 271 0.9 2.6 0.00 0.00 0.00 92 1018.1
20260508060343 46 253 0.9 0.0 0.00 0.00 0.00 92 1018.1
20260508060243 46 98 0.9 0.0 0.00 0.00 0.00 92 1018.1
20260508060143 46 63 0.9 0.0 0.00 0.00 0.00 92 1018.0
20260508060043 46 218 0.0 0.0 0.00 0.00 0.00 92 1018.0
20260508055943 46 0 0.0 0.0 0.00 0.00 0.00 92 1018.0
20260508055843 46 111 0.0 0.0 0.00 0.00 0.00 92 1018.1
20260508055743 46 111 0.0 0.0 0.00 0.00 0.00 92 1018.0
20260508055642 46 299 0.0 0.0 0.00 0.00 0.00 92 1018.0
20260508055542 46 299 0.0 0.0 0.00 0.00 0.00 93 1018.0
20260508055442 46 117 0.0 0.0 0.00 0.00 0.00 93 1018.0
20260508055342 46 309 0.0 0.0 0.00 0.00 0.00 93 1018.0
20260508055242 46 124 0.0 0.0 0.00 0.00 0.00 93 1018.0
20260508055142 46 224 0.9 0.0 0.00 0.00 0.00 93 1017.9
20260508055042 46 149 0.0 0.0 0.00 0.00 0.00 93 1018.0
20260508054942 46 243 0.0 0.0 0.00 0.00 0.00 93 1018.0
20260508054842 46 76 0.9 0.0 0.00 0.00 0.00 93 1017.9
20260508054742 46 207 0.9 0.0 0.00 0.00 0.00 93 1017.9
20260508054642 46 135 0.0 0.0 0.00 0.00 0.00 93 1017.8
20260508054542 46 133 0.0 0.0 0.00 0.00 0.00 93 1018.0
20260508054442 46 62 0.0 0.0 0.00 0.00 0.00 93 1017.9
20260508054342 46 117 0.9 0.0 0.00 0.00 0.00 93 1018.0
20260508054242 46 15 0.9 0.0 0.00 0.00 0.00 93 1017.9
20260508054142 46 7 0.9 0.0 0.00 0.00 0.00 93 1017.9
20260508054042 46 334 0.0 0.0 0.00 0.00 0.00 93 1018.0
20260508053941 46 66 0.0 0.0 0.00 0.00 0.00 93 1018.0
20260508053841 46 180 0.0 0.0 0.00 0.00 0.00 93 1017.8
20260508053741 46 242 0.0 0.0 0.00 0.00 0.00 93 1018.0
20260508053641 46 78 0.0 0.0 0.00 0.00 0.00 93 1018.0
20260508053541 46 185 0.9 0.0 0.00 0.00 0.00 94 1017.9
20260508053441 46 235 0.9 0.0 0.00 0.00 0.00 94 1018.0
20260508053341 46 205 0.0 0.0 0.00 0.00 0.00 93 1018.0
20260508053241 46 150 0.9 0.0 0.00 0.00 0.00 94 1017.9
20260508053141 46 218 0.9 0.0 0.00 0.00 0.00 93 1017.9
20260508053041 46 149 0.0 0.0 0.00 0.00 0.00 93 1017.8
20260508052941 46 62 0.0 0.0 0.00 0.00 0.00 93 1017.8
20260508052841 46 71 0.9 0.0 0.00 0.00 0.00 94 1017.8
20260508052741 46 212 0.9 0.0 0.00 0.00 0.00 94 1018.0
20260508052641 46 241 0.9 0.0 0.00 0.00 0.00 94 1017.9
20260508052541 46 319 0.0 0.0 0.00 0.00 0.00 94 1017.8
20260508052441 46 64 0.9 0.0 0.00 0.00 0.00 94 1017.9
20260508052340 46 126 0.9 0.0 0.00 0.00 0.00 94 1017.9
20260508052241 46 67 0.9 0.0 0.00 0.00 0.00 94 1017.9
20260508052140 46 50 0.9 0.0 0.00 0.00 0.00 94 1017.8
20260508052040 46 74 0.9 0.0 0.00 0.00 0.00 94 1017.8
20260508051940 46 46 0.9 0.0 0.00 0.00 0.00 94 1017.8
20260508051840 46 315 0.0 0.0 0.00 0.00 0.00 94 1017.9
20260508051740 46 315 0.0 0.0 0.00 0.00 0.00 94 1017.8
20260508051640 46 311 0.9 0.0 0.00 0.00 0.00 94 1017.8
20260508051540 46 12 0.0 0.0 0.00 0.00 0.00 94 1017.8
20260508051440 46 333 0.0 0.0 0.00 0.00 0.00 94 1017.8
20260508051340 46 297 0.0 0.0 0.00 0.00 0.00 94 1017.8
20260508051240 46 353 0.0 0.0 0.00 0.00 0.00 94 1017.9
20260508051140 46 184 0.0 0.0 0.00 0.00 0.00 94 1018.0
20260508051040 46 66 0.9 0.0 0.00 0.00 0.00 94 1017.9
20260508050940 46 66 0.0 0.0 0.00 0.00 0.00 94 1017.9
20260508050839 46 179 0.0 0.0 0.00 0.00 0.00 94 1017.8
20260508050739 46 177 0.0 0.0 0.00 0.00 0.00 94 1017.8
20260508050639 46 150 0.0 0.0 0.00 0.00 0.00 94 1017.8
20260508050539 46 150 0.0 0.0 0.00 0.00 0.00 94 1017.8
20260508050439 46 152 0.0 0.0 0.00 0.00 0.00 94 1017.8
20260508050339 46 269 0.0 0.0 0.00 0.00 0.00 94 1017.8
20260508050239 46 24 1.7 0.0 0.00 0.00 0.00 94 1017.8
20260508050139 46 315 0.9 0.0 0.00 0.00 0.00 94 1017.9
20260508050039 46 267 1.7 0.0 0.00 0.00 0.00 94 1017.8
20260508045939 46 135 0.0 0.0 0.00 0.00 0.00 94 1017.7
20260508045839 46 131 0.0 0.0 0.00 0.00 0.00 94 1017.8
20260508045739 46 130 0.0 0.0 0.00 0.00 0.00 94 1017.8
20260508045639 46 217 0.0 0.0 0.00 0.00 0.00 94 1017.8
20260508045539 46 89 0.0 0.0 0.00 0.00 0.00 94 1017.7
20260508045439 46 117 0.0 0.0 0.00 0.00 0.00 95 1017.7
20260508045339 46 110 0.9 0.0 0.00 0.00 0.00 95 1017.6
20260508045239 46 57 0.0 0.0 0.00 0.00 0.00 94 1017.6
20260508045138 46 304 0.0 0.0 0.00 0.00 0.00 95 1017.8
20260508045038 46 1 0.0 0.0 0.00 0.00 0.00 95 1017.6
20260508044938 46 55 0.0 0.0 0.00 0.00 0.00 95 1017.7
20260508044838 46 55 0.0 0.0 0.00 0.00 0.00 95 1017.6
20260508044738 46 55 0.0 0.0 0.00 0.00 0.00 95 1017.6
20260508044638 46 302 0.0 0.0 0.00 0.00 0.00 95 1017.6
20260508044538 46 55 0.0 0.0 0.00 0.00 0.00 95 1017.7
20260508044438 46 6 0.0 0.0 0.00 0.00 0.00 95 1017.5
20260508044338 46 240 0.0 0.0 0.00 0.00 0.00 95 1017.6
20260508044238 46 161 0.0 0.0 0.00 0.00 0.00 95 1017.6
20260508044138 45 261 0.0 0.0 0.00 0.00 0.00 95 1017.6
20260508044038 46 282 0.0 0.0 0.00 0.00 0.00 95 1017.6
20260508043938 45 154 0.0 0.0 0.00 0.00 0.00 95 1017.6
20260508043838 45 156 0.0 0.0 0.00 0.00 0.00 95 1017.6
20260508043738 45 59 0.0 0.0 0.00 0.00 0.00 95 1017.6
20260508043638 45 62 0.0 0.0 0.00 0.00 0.00 95 1017.6
20260508043537 45 235 0.0 0.0 0.00 0.00 0.00 95 1017.6
20260508043437 45 73 0.0 0.0 0.00 0.00 0.00 95 1017.5
20260508043337 45 255 0.9 0.0 0.00 0.00 0.00 95 1017.5
20260508043237 45 297 0.0 0.0 0.00 0.00 0.00 95 1017.6
20260508043137 45 62 0.0 0.0 0.00 0.00 0.00 95 1017.5
20260508043037 45 242 0.0 0.0 0.00 0.00 0.00 95 1017.5
20260508042937 45 280 0.0 0.0 0.00 0.00 0.00 95 1017.6
20260508042837 45 296 0.0 0.0 0.00 0.00 0.00 95 1017.5
20260508042737 45 230 0.0 0.0 0.00 0.00 0.00 95 1017.5
20260508042637 45 202 0.0 0.0 0.00 0.00 0.00 95 1017.5
20260508042537 45 202 0.0 0.0 0.00 0.00 0.00 95 1017.6
20260508042437 45 202 0.0 0.0 0.00 0.00 0.00 95 1017.5
20260508042337 45 142 0.0 0.0 0.00 0.00 0.00 95 1017.5
20260508042237 45 142 0.0 0.0 0.00 0.00 0.00 95 1017.3
20260508042137 45 50 0.0 0.0 0.00 0.00 0.00 95 1017.4
20260508042037 45 50 0.0 0.0 0.00 0.00 0.00 95 1017.5
20260508041936 45 50 0.0 0.0 0.00 0.00 0.00 95 1017.4
20260508041836 45 50 0.0 0.0 0.00 0.00 0.00 95 1017.4
20260508041736 45 50 0.0 0.0 0.00 0.00 0.00 95 1017.5
20260508041636 45 55 0.0 0.0 0.00 0.00 0.00 95 1017.4
20260508041536 45 55 0.0 0.0 0.00 0.00 0.00 95 1017.4
20260508041436 45 50 0.0 0.0 0.00 0.00 0.00 95 1017.4
20260508041336 45 129 0.0 0.0 0.00 0.00 0.00 95 1017.3
20260508041236 45 129 0.0 0.0 0.00 0.00 0.00 95 1017.4
20260508041136 45 224 0.0 0.0 0.00 0.00 0.00 95 1017.5
20260508041036 45 304 0.0 0.0 0.00 0.00 0.00 95 1017.4
20260508040936 45 287 0.9 0.0 0.00 0.00 0.00 95 1017.3
20260508040836 45 18 0.0 0.0 0.00 0.00 0.00 95 1017.4
20260508040736 45 74 0.0 0.0 0.00 0.00 0.00 95 1017.4
20260508040636 45 50 0.0 0.0 0.00 0.00 0.00 95 1017.3
20260508040536 45 32 0.0 0.0 0.00 0.00 0.00 95 1017.4
20260508040436 45 345 0.0 0.0 0.00 0.00 0.00 95 1017.3
20260508040336 45 306 0.0 0.0 0.00 0.00 0.00 95 1017.4
20260508040235 45 299 0.0 0.0 0.00 0.00 0.00 95 1017.4
20260508040135 45 299 0.0 0.0 0.00 0.00 0.00 95 1017.4
20260508040035 45 269 0.0 0.0 0.00 0.00 0.00 95 1017.4
20260508035935 45 269 0.0 0.0 0.00 0.00 0.00 95 1017.4
20260508035835 45 145 0.0 0.0 0.00 0.00 0.00 95 1017.4
20260508035735 45 89 0.0 0.0 0.00 0.00 0.00 95 1017.4
20260508035635 45 89 0.0 0.0 0.00 0.00 0.00 95 1017.4
20260508035535 45 49 0.0 0.0 0.00 0.00 0.00 95 1017.4
20260508035435 45 49 0.0 0.0 0.00 0.00 0.00 95 1017.4
20260508035335 45 49 0.0 0.0 0.00 0.00 0.00 95 1017.4
20260508035235 45 297 0.0 0.0 0.00 0.00 0.00 95 1017.4
20260508035135 45 87 0.0 0.0 0.00 0.00 0.00 95 1017.4
20260508035035 45 353 0.9 0.0 0.00 0.00 0.00 95 1017.4
20260508034935 45 352 0.0 0.0 0.00 0.00 0.00 95 1017.4
20260508034835 45 353 0.0 0.0 0.00 0.00 0.00 95 1017.2
20260508034735 45 304 0.9 0.0 0.00 0.00 0.00 95 1017.4
20260508034634 45 290 0.0 0.0 0.00 0.00 0.00 95 1017.3
20260508034534 45 117 0.0 0.0 0.00 0.00 0.00 95 1017.3
20260508034434 45 57 0.0 0.0 0.00 0.00 0.00 95 1017.4
20260508034334 45 57 0.0 0.0 0.00 0.00 0.00 95 1017.4
20260508034234 45 319 0.9 0.0 0.00 0.00 0.00 95 1017.4
20260508034134 45 42 0.9 0.0 0.00 0.00 0.00 95 1017.3
20260508034034 45 296 0.9 0.0 0.00 0.00 0.00 95 1017.4
20260508033934 45 126 0.0 0.0 0.00 0.00 0.00 95 1017.3
20260508033834 45 76 0.0 0.0 0.00 0.00 0.00 95 1017.4
20260508033734 45 157 0.0 0.0 0.00 0.00 0.00 95 1017.3
20260508033634 45 117 0.0 0.0 0.00 0.00 0.00 95 1017.4
20260508033534 45 93 0.0 0.0 0.00 0.00 0.00 95 1017.4
20260508033434 45 58 0.0 0.0 0.00 0.00 0.00 95 1017.4
20260508033334 45 294 0.0 0.0 0.00 0.00 0.00 95 1017.3
20260508033234 45 238 0.9 0.0 0.00 0.00 0.00 95 1017.3
20260508033134 45 129 0.0 0.0 0.00 0.00 0.00 95 1017.3
20260508033033 45 129 0.0 0.0 0.00 0.00 0.00 95 1017.4
20260508032933 45 117 0.0 0.0 0.00 0.00 0.00 95 1017.4
20260508032833 45 117 0.0 0.0 0.00 0.00 0.00 95 1017.4
20260508032733 45 117 0.0 0.0 0.00 0.00 0.00 95 1017.3
20260508032633 45 117 0.0 0.0 0.00 0.00 0.00 95 1017.3
20260508032533 45 322 0.0 0.0 0.00 0.00 0.00 95 1017.4
20260508032433 45 322 0.0 0.0 0.00 0.00 0.00 94 1017.3
20260508032333 45 224 0.0 0.0 0.00 0.00 0.00 94 1017.4
20260508032233 45 256 0.0 0.0 0.00 0.00 0.00 94 1017.4
20260508032133 45 256 0.0 0.0 0.00 0.00 0.00 94 1017.3
20260508032033 45 256 0.0 0.0 0.00 0.00 0.00 94 1017.3
20260508031933 45 286 0.0 0.0 0.00 0.00 0.00 94 1017.4
20260508031833 45 325 0.0 0.0 0.00 0.00 0.00 94 1017.3
20260508031733 45 293 0.9 0.0 0.00 0.00 0.00 94 1017.3
20260508031633 45 32 0.0 0.0 0.00 0.00 0.00 94 1017.3
20260508031533 45 62 0.0 0.0 0.00 0.00 0.00 94 1017.3
20260508031433 45 76 0.9 0.0 0.00 0.00 0.00 94 1017.3
20260508031332 45 62 0.0 0.0 0.00 0.00 0.00 94 1017.3
20260508031232 45 117 0.0 0.0 0.00 0.00 0.00 94 1017.2
20260508031132 45 117 0.0 0.0 0.00 0.00 0.00 94 1017.3
20260508031032 45 121 0.0 0.0 0.00 0.00 0.00 94 1017.3
20260508030932 45 283 0.0 0.0 0.00 0.00 0.00 94 1017.3
20260508030832 45 283 0.0 0.0 0.00 0.00 0.00 94 1017.3
20260508030732 45 212 0.0 0.0 0.00 0.00 0.00 94 1017.2
20260508030632 45 354 0.0 0.0 0.00 0.00 0.00 94 1017.2
20260508030532 45 326 0.9 0.0 0.00 0.00 0.00 94 1017.3
20260508030432 45 309 0.0 0.0 0.00 0.00 0.00 94 1017.3
20260508030332 45 309 0.0 0.0 0.00 0.00 0.00 94 1017.2
20260508030232 45 58 0.0 0.0 0.00 0.00 0.00 94 1017.3
20260508030132 45 269 0.0 0.0 0.00 0.00 0.00 94 1017.3
20260508030032 45 322 0.0 0.0 0.00 0.00 0.00 94 1017.3
20260508025932 45 334 0.0 0.0 0.00 0.00 0.00 94 1017.2
20260508025832 45 62 0.0 0.0 0.00 0.00 0.00 94 1017.2
20260508025731 45 293 0.0 0.0 0.00 0.00 0.00 94 1017.4
20260508025631 45 293 0.0 0.0 0.00 0.00 0.00 94 1017.3
20260508025531 45 293 0.0 0.0 0.00 0.00 0.00 94 1017.3
20260508025431 45 293 0.9 0.0 0.00 0.00 0.00 94 1017.2
20260508025331 45 50 0.0 0.0 0.00 0.00 0.00 94 1017.4
20260508025231 45 50 0.0 0.0 0.00 0.00 0.00 94 1017.3
20260508025131 45 50 0.0 0.0 0.00 0.00 0.00 94 1017.3
20260508025031 45 71 0.0 0.0 0.00 0.00 0.00 94 1017.3
20260508024931 45 129 0.0 0.0 0.00 0.00 0.00 94 1017.3
20260508024831 45 125 0.0 0.0 0.00 0.00 0.00 94 1017.4
20260508024731 45 32 0.0 0.0 0.00 0.00 0.00 94 1017.3
20260508024631 45 32 0.0 0.0 0.00 0.00 0.00 94 1017.4
20260508024531 45 76 0.9 0.0 0.00 0.00 0.00 94 1017.3
20260508024431 45 62 0.0 0.0 0.00 0.00 0.00 94 1017.4
20260508024331 45 269 0.0 0.0 0.00 0.00 0.00 94 1017.4
20260508024231 45 269 0.0 0.0 0.00 0.00 0.00 94 1017.4
20260508024131 45 269 0.9 0.0 0.00 0.00 0.00 94 1017.4
20260508024030 45 313 0.0 0.0 0.00 0.00 0.00 94 1017.4
20260508023930 46 310 0.0 0.0 0.00 0.00 0.00 94 1017.4
20260508023830 46 119 0.0 0.0 0.00 0.00 0.00 94 1017.3
20260508023730 46 119 0.0 0.0 0.00 0.00 0.00 94 1017.4
20260508023630 45 119 0.0 0.0 0.00 0.00 0.00 94 1017.4
20260508023530 46 157 0.0 0.0 0.00 0.00 0.00 94 1017.5
20260508023430 46 269 0.0 0.0 0.00 0.00 0.00 94 1017.4
20260508023330 46 246 0.0 0.0 0.00 0.00 0.00 94 1017.3
20260508023230 46 246 0.0 0.0 0.00 0.00 0.00 94 1017.3
20260508023130 46 269 0.0 0.0 0.00 0.00 0.00 94 1017.3
20260508023030 46 283 0.0 0.0 0.00 0.00 0.00 94 1017.4
20260508022930 46 283 0.0 0.0 0.00 0.00 0.00 94 1017.4
20260508022830 46 3 0.9 0.0 0.00 0.00 0.00 94 1017.3
20260508022730 46 6 0.9 0.0 0.00 0.00 0.00 94 1017.3
20260508022630 46 55 0.0 0.0 0.00 0.00 0.00 94 1017.5
20260508022530 46 224 0.9 0.0 0.00 0.00 0.00 94 1017.4
20260508022429 46 89 0.9 0.0 0.00 0.00 0.00 94 1017.4
20260508022329 46 66 0.0 0.0 0.00 0.00 0.00 94 1017.3
20260508022229 46 66 0.0 0.0 0.00 0.00 0.00 94 1017.4
20260508022129 46 283 0.0 0.0 0.00 0.00 0.00 94 1017.4
20260508022029 46 62 0.0 0.0 0.00 0.00 0.00 94 1017.4
20260508021929 46 62 0.0 0.0 0.00 0.00 0.00 94 1017.4
20260508021829 46 62 0.0 0.0 0.00 0.00 0.00 94 1017.3
20260508021729 46 62 0.0 0.0 0.00 0.00 0.00 94 1017.4
20260508021629 46 119 0.0 0.0 0.00 0.00 0.00 94 1017.4
20260508021529 46 249 0.0 0.0 0.00 0.00 0.00 94 1017.4
20260508021429 46 72 0.0 0.0 0.00 0.00 0.00 94 1017.4
20260508021329 46 47 0.0 0.0 0.00 0.00 0.00 94 1017.3
20260508021229 46 77 0.0 0.0 0.00 0.00 0.00 94 1017.4
20260508021129 46 86 0.9 0.0 0.00 0.00 0.00 94 1017.4
20260508021029 46 113 0.0 0.0 0.00 0.00 0.00 94 1017.3
20260508020929 46 290 0.0 0.0 0.00 0.00 0.00 94 1017.4
20260508020829 46 197 0.0 0.0 0.00 0.00 0.00 94 1017.3
20260508020728 46 31 0.0 0.0 0.00 0.00 0.00 94 1017.4
20260508020628 46 356 0.9 0.0 0.00 0.00 0.00 94 1017.4
20260508020528 46 89 0.0 0.0 0.00 0.00 0.00 94 1017.3
20260508020428 46 106 0.0 0.0 0.00 0.00 0.00 94 1017.3
20260508020328 46 106 0.9 0.0 0.00 0.00 0.00 94 1017.4
20260508020228 46 228 0.0 0.0 0.00 0.00 0.00 94 1017.4
20260508020128 46 63 0.9 0.0 0.00 0.00 0.00 94 1017.3
20260508020028 46 89 0.0 0.0 0.00 0.00 0.00 94 1017.4
20260508015928 46 320 0.9 0.0 0.00 0.00 0.00 94 1017.4
20260508015828 46 18 0.9 0.0 0.00 0.00 0.00 94 1017.4
20260508015728 46 145 0.0 0.0 0.00 0.00 0.00 94 1017.4
20260508015628 46 318 0.0 0.0 0.00 0.00 0.00 94 1017.4
20260508015528 46 145 0.0 0.0 0.00 0.00 0.00 94 1017.4
20260508015428 46 269 0.0 0.0 0.00 0.00 0.00 94 1017.4
20260508015328 46 117 0.0 0.0 0.00 0.00 0.00 94 1017.5
20260508015228 46 118 0.0 0.0 0.00 0.00 0.00 94 1017.4
20260508015127 46 89 0.0 0.0 0.00 0.00 0.00 94 1017.4
20260508015027 46 37 0.0 0.0 0.00 0.00 0.00 94 1017.3
20260508014927 45 37 0.0 0.0 0.00 0.00 0.00 94 1017.4
20260508014827 45 291 0.0 0.0 0.00 0.00 0.00 94 1017.4
20260508014727 46 291 0.0 0.0 0.00 0.00 0.00 94 1017.4
20260508014627 46 117 0.0 0.0 0.00 0.00 0.00 94 1017.4
20260508014527 46 62 0.0 0.0 0.00 0.00 0.00 94 1017.4
20260508014427 46 98 0.0 0.0 0.00 0.00 0.00 94 1017.4
20260508014327 46 205 0.0 0.0 0.00 0.00 0.00 94 1017.4
20260508014227 46 62 0.0 0.0 0.00 0.00 0.00 94 1017.5
20260508014127 46 23 0.0 0.0 0.00 0.00 0.00 94 1017.4
20260508014027 46 309 0.0 0.0 0.00 0.00 0.00 94 1017.4
20260508013927 46 135 0.0 0.0 0.00 0.00 0.00 94 1017.5
20260508013827 46 107 0.0 0.0 0.00 0.00 0.00 94 1017.4
20260508013727 46 169 0.0 0.0 0.00 0.00 0.00 94 1017.3
20260508013627 46 147 0.0 0.0 0.00 0.00 0.00 94 1017.4
20260508013526 46 156 0.0 0.0 0.00 0.00 0.00 94 1017.4
20260508013426 46 2 0.9 0.0 0.00 0.00 0.00 94 1017.4
20260508013326 46 62 0.0 0.0 0.00 0.00 0.00 94 1017.4
20260508013226 46 37 0.9 0.0 0.00 0.00 0.00 94 1017.4
20260508013126 46 25 0.9 0.0 0.00 0.00 0.00 94 1017.5
20260508013026 45 214 0.0 0.0 0.00 0.00 0.00 94 1017.4
20260508012926 45 131 0.0 0.0 0.00 0.00 0.00 94 1017.4
20260508012826 45 126 0.0 0.0 0.00 0.00 0.00 94 1017.3
20260508012726 45 62 0.0 0.0 0.00 0.00 0.00 94 1017.4
20260508012626 45 51 0.9 0.0 0.00 0.00 0.00 94 1017.3
20260508012526 45 129 0.0 0.0 0.00 0.00 0.00 94 1017.5
20260508012426 46 339 0.9 0.0 0.00 0.00 0.00 94 1017.4
20260508012326 46 117 0.9 0.0 0.00 0.00 0.00 94 1017.4
20260508012226 45 331 0.9 0.0 0.00 0.00 0.00 94 1017.4
20260508012126 46 283 0.0 0.0 0.00 0.00 0.00 94 1017.4
20260508012026 46 269 0.0 0.0 0.00 0.00 0.00 94 1017.4
20260508011925 46 329 0.0 0.0 0.00 0.00 0.00 94 1017.4
20260508011825 46 329 0.0 0.0 0.00 0.00 0.00 94 1017.4
20260508011725 46 329 0.0 0.0 0.00 0.00 0.00 94 1017.4
20260508011625 46 329 0.0 0.0 0.00 0.00 0.00 94 1017.4
20260508011525 46 306 0.9 0.0 0.00 0.00 0.00 94 1017.5
20260508011425 46 88 0.9 0.0 0.00 0.00 0.00 94 1017.4
20260508011325 46 283 0.0 0.0 0.00 0.00 0.00 94 1017.5
20260508011225 46 242 0.0 0.0 0.00 0.00 0.00 94 1017.4
20260508011125 46 242 0.0 0.0 0.00 0.00 0.00 94 1017.4
20260508011025 46 309 0.0 0.0 0.00 0.00 0.00 94 1017.3
20260508010925 46 309 0.0 0.0 0.00 0.00 0.00 94 1017.4
20260508010825 46 309 0.0 0.0 0.00 0.00 0.00 94 1017.4
20260508010725 46 269 0.9 0.0 0.00 0.00 0.00 94 1017.4
20260508010625 46 50 0.0 0.0 0.00 0.00 0.00 94 1017.4
20260508010525 46 50 0.0 0.0 0.00 0.00 0.00 94 1017.4
20260508010425 46 50 0.0 0.0 0.00 0.00 0.00 94 1017.4
20260508010325 46 55 0.0 0.0 0.00 0.00 0.00 94 1017.5
20260508010224 46 29 0.0 0.0 0.00 0.00 0.00 94 1017.5
20260508010124 45 62 0.0 0.0 0.00 0.00 0.00 94 1017.5
20260508010024 45 62 0.0 0.0 0.00 0.00 0.00 94 1017.5
20260508005924 45 62 0.0 0.0 0.00 0.00 0.00 94 1017.5
20260508005824 46 62 0.0 0.0 0.00 0.00 0.00 94 1017.4
20260508005724 45 62 0.0 0.0 0.00 0.00 0.00 94 1017.5
20260508005624 45 62 0.0 0.0 0.00 0.00 0.00 94 1017.5
20260508005524 45 62 0.0 0.0 0.00 0.00 0.00 94 1017.4
20260508005424 45 62 0.0 0.0 0.00 0.00 0.00 94 1017.5
20260508005324 45 62 0.0 0.0 0.00 0.00 0.00 94 1017.5
20260508005224 45 62 0.0 0.0 0.00 0.00 0.00 94 1017.4
20260508005124 45 62 0.0 0.0 0.00 0.00 0.00 94 1017.5
20260508005024 45 124 0.9 0.0 0.00 0.00 0.00 94 1017.5
20260508004924 45 235 0.0 0.0 0.00 0.00 0.00 94 1017.4
20260508004824 45 239 0.9 0.0 0.00 0.00 0.00 94 1017.4
20260508004724 45 293 0.0 0.0 0.00 0.00 0.00 94 1017.5
20260508004623 45 315 0.0 0.0 0.00 0.00 0.00 94 1017.6
20260508004523 45 315 0.0 0.0 0.00 0.00 0.00 94 1017.4
20260508004423 45 295 0.9 0.0 0.00 0.00 0.00 94 1017.5
20260508004323 45 269 0.9 0.0 0.00 0.00 0.00 94 1017.5
20260508004223 45 168 0.0 0.0 0.00 0.00 0.00 94 1017.6
20260508004123 45 37 0.0 0.0 0.00 0.00 0.00 94 1017.6
20260508004023 45 37 0.0 0.0 0.00 0.00 0.00 94 1017.5
20260508003923 45 37 0.0 0.0 0.00 0.00 0.00 94 1017.5
20260508003823 45 37 0.0 0.0 0.00 0.00 0.00 94 1017.5
20260508003723 45 37 0.0 0.0 0.00 0.00 0.00 94 1017.6
20260508003623 45 224 0.0 0.0 0.00 0.00 0.00 94 1017.5
20260508003523 45 224 0.0 0.0 0.00 0.00 0.00 94 1017.4
20260508003423 45 224 0.0 0.0 0.00 0.00 0.00 94 1017.5
20260508003323 45 76 0.0 0.0 0.00 0.00 0.00 94 1017.5
20260508003223 45 224 0.0 0.0 0.00 0.00 0.00 94 1017.5
20260508003123 45 282 0.9 0.0 0.00 0.00 0.00 94 1017.5
20260508003022 45 31 0.0 0.0 0.00 0.00 0.00 95 1017.5
20260508002922 45 279 0.9 0.0 0.00 0.00 0.00 95 1017.4
20260508002822 45 269 0.0 0.0 0.00 0.00 0.00 95 1017.5
20260508002722 45 217 0.0 0.0 0.00 0.00 0.00 95 1017.6
20260508002622 45 261 0.0 0.0 0.00 0.00 0.00 95 1017.5
20260508002522 45 217 0.0 0.0 0.00 0.00 0.00 95 1017.5
20260508002422 45 55 0.0 0.0 0.00 0.00 0.00 95 1017.4
20260508002322 45 323 0.0 0.0 0.00 0.00 0.00 95 1017.4
20260508002222 45 60 0.0 0.0 0.00 0.00 0.00 95 1017.4
20260508002122 45 69 0.0 0.0 0.00 0.00 0.00 95 1017.4
20260508002022 45 69 0.9 0.0 0.00 0.00 0.00 95 1017.5
20260508001922 45 66 0.9 0.0 0.00 0.00 0.00 95 1017.3
20260508001822 45 76 0.0 0.0 0.00 0.00 0.00 95 1017.4
20260508001722 45 76 0.0 0.0 0.00 0.00 0.00 95 1017.4
20260508001622 45 82 0.9 0.0 0.00 0.00 0.00 95 1017.4
20260508001522 45 91 0.9 0.0 0.00 0.00 0.00 95 1017.4
20260508001421 45 160 0.0 0.0 0.00 0.00 0.00 95 1017.4
20260508001321 45 233 0.0 0.0 0.00 0.00 0.00 95 1017.3
20260508001221 45 287 0.0 0.0 0.00 0.00 0.00 95 1017.4
20260508001121 45 296 0.0 0.0 0.00 0.00 0.00 95 1017.3
20260508001021 45 0 0.0 0.0 0.00 0.00 0.00 95 1017.3
20260508000921 45 269 0.0 0.0 0.00 0.00 0.00 95 1017.4
20260508000821 45 275 0.0 0.0 0.00 0.00 0.00 95 1017.3
20260508000721 45 288 0.0 0.0 0.00 0.00 0.00 95 1017.5
20260508000621 45 81 0.0 0.0 0.00 0.00 0.00 95 1017.4
20260508000521 45 290 0.9 0.0 0.00 0.00 0.00 95 1017.5
20260508000421 45 89 0.0 0.0 0.00 0.00 0.00 95 1017.4
20260508000321 45 110 0.0 0.0 0.00 0.00 0.00 95 1017.4
20260508000221 45 5 0.0 0.0 0.00 0.00 0.00 95 1017.5
20260508000121 45 50 0.0 0.0 0.00 0.00 0.00 95 1017.5
20260508000021 45 63 0.9 0.0 0.00 0.00 0.00 95 1017.5
20260507235920 45 117 0.0 0.0 0.00 0.00 0.00 95 1017.5
20260507235820 45 76 0.0 0.0 0.00 0.00 0.00 95 1017.5
20260507235720 45 55 0.0 0.0 0.00 0.00 0.00 95 1017.5
20260507235620 45 55 0.0 0.0 0.00 0.00 0.00 95 1017.4
20260507235520 45 102 0.0 0.0 0.00 0.00 0.00 95 1017.5
20260507235420 45 269 0.0 0.0 0.00 0.00 0.00 95 1017.5
20260507235320 45 176 0.9 0.0 0.00 0.00 0.00 95 1017.5
20260507235220 45 276 0.9 0.0 0.00 0.00 0.00 95 1017.5
20260507235120 45 292 0.9 0.0 0.00 0.00 0.00 95 1017.5
20260507235020 45 246 0.0 0.0 0.00 0.00 0.00 95 1017.4
20260507234920 45 246 0.9 0.0 0.00 0.00 0.00 95 1017.5
20260507234820 45 19 0.0 0.0 0.00 0.00 0.00 95 1017.4
20260507234720 45 230 0.0 0.0 0.00 0.00 0.00 95 1017.4
20260507234620 45 257 0.0 0.0 0.00 0.00 0.00 96 1017.5
20260507234520 45 276 0.0 0.0 0.00 0.00 0.00 96 1017.5
20260507234420 45 283 0.0 0.0 0.00 0.00 0.00 96 1017.4
20260507234320 45 283 0.0 0.0 0.00 0.00 0.00 96 1017.5
20260507234220 45 288 0.0 0.0 0.00 0.00 0.00 96 1017.4
20260507234119 45 50 0.0 0.0 0.00 0.00 0.00 96 1017.5
20260507234019 45 76 0.0 0.0 0.00 0.00 0.00 96 1017.5
20260507233919 45 76 0.0 0.0 0.00 0.00 0.00 96 1017.5
20260507233819 45 89 0.0 0.0 0.00 0.00 0.00 96 1017.4
20260507233719 45 51 0.9 0.0 0.00 0.00 0.00 96 1017.6
20260507233619 45 256 0.0 0.0 0.00 0.00 0.00 96 1017.5
20260507233519 45 256 0.0 0.0 0.00 0.00 0.00 96 1017.6
20260507233419 45 142 0.0 0.0 0.00 0.00 0.00 96 1017.6
20260507233319 45 62 0.0 0.0 0.00 0.00 0.00 96 1017.6
20260507233219 45 103 0.0 0.0 0.00 0.00 0.00 96 1017.5
20260507233119 45 76 0.0 0.0 0.00 0.00 0.00 96 1017.5
20260507233019 45 294 0.9 0.0 0.00 0.00 0.00 96 1017.5
20260507232919 45 243 0.0 0.0 0.00 0.00 0.00 96 1017.6
20260507232819 45 269 0.0 0.0 0.00 0.00 0.00 96 1017.6
20260507232719 45 277 0.0 0.0 0.00 0.00 0.00 96 1017.5
20260507232619 45 306 0.0 0.0 0.00 0.00 0.00 96 1017.5
20260507232518 45 306 0.0 0.0 0.00 0.00 0.00 96 1017.5
20260507232418 45 306 0.0 0.0 0.00 0.00 0.00 96 1017.4
20260507232318 45 306 0.0 0.0 0.00 0.00 0.00 96 1017.5
20260507232218 45 230 0.0 0.0 0.00 0.00 0.00 96 1017.5
20260507232118 45 230 0.0 0.0 0.00 0.00 0.00 96 1017.5
20260507232018 45 230 0.0 0.0 0.00 0.00 0.00 96 1017.5
20260507231918 45 262 0.0 0.0 0.00 0.00 0.00 96 1017.4
20260507231818 45 321 0.0 0.0 0.00 0.00 0.00 96 1017.5
20260507231718 45 321 0.9 0.0 0.00 0.00 0.00 96 1017.4
20260507231618 45 55 0.0 0.0 0.00 0.00 0.00 96 1017.5
20260507231518 45 321 0.0 0.0 0.00 0.00 0.00 96 1017.5
20260507231418 45 321 0.0 0.0 0.00 0.00 0.00 96 1017.5
20260507231318 45 321 0.0 0.0 0.00 0.00 0.00 96 1017.5
20260507231218 45 103 0.0 0.0 0.00 0.00 0.00 95 1017.5
20260507231118 45 352 0.0 0.0 0.00 0.00 0.00 96 1017.6
20260507231018 45 315 0.0 0.0 0.00 0.00 0.00 95 1017.5
20260507230918 45 315 0.0 0.0 0.00 0.00 0.00 95 1017.6
20260507230817 45 315 0.0 0.0 0.00 0.00 0.00 96 1017.6
20260507230717 45 205 0.0 0.0 0.00 0.00 0.00 95 1017.5
20260507230617 45 50 0.0 0.0 0.00 0.00 0.00 95 1017.5
20260507230517 45 35 0.9 0.0 0.00 0.00 0.00 95 1017.6
20260507230417 45 301 0.0 0.0 0.00 0.00 0.00 95 1017.7
20260507230317 45 77 0.0 0.0 0.00 0.00 0.00 95 1017.6
20260507230217 45 77 0.0 0.0 0.00 0.00 0.00 95 1017.6
20260507230117 45 77 0.0 0.0 0.00 0.00 0.00 95 1017.7
20260507230017 45 269 0.0 0.0 0.00 0.00 0.00 95 1017.6
20260507225917 45 269 0.0 0.0 0.00 0.00 0.00 95 1017.6
20260507225817 45 269 0.0 0.0 0.00 0.00 0.00 95 1017.6
20260507225717 45 269 0.0 0.0 0.00 0.00 0.00 95 1017.5
20260507225617 45 50 0.0 0.0 0.00 0.00 0.00 95 1017.5
20260507225517 45 50 0.0 0.0 0.00 0.00 0.00 95 1017.4
20260507225417 45 50 0.0 0.0 0.00 0.00 0.00 95 1017.5
20260507225317 45 50 0.0 0.0 0.00 0.00 0.00 95 1017.4
20260507225216 45 50 0.0 0.0 0.00 0.00 0.00 95 1017.4
20260507225116 45 293 0.0 0.0 0.00 0.00 0.00 95 1017.5
20260507225016 45 293 0.0 0.0 0.00 0.00 0.00 95 1017.5
20260507224916 45 124 0.0 0.0 0.00 0.00 0.00 95 1017.5
20260507224816 45 124 0.0 0.0 0.00 0.00 0.00 95 1017.5
20260507224716 45 124 0.0 0.0 0.00 0.00 0.00 95 1017.5
20260507224616 45 150 0.9 0.0 0.00 0.00 0.00 95 1017.5
20260507224516 45 75 0.9 0.0 0.00 0.00 0.00 95 1017.4
20260507224416 45 98 0.9 0.0 0.00 0.00 0.00 95 1017.4
20260507224316 45 315 0.0 0.0 0.00 0.00 0.00 95 1017.4
20260507224216 45 315 0.0 0.0 0.00 0.00 0.00 95 1017.4
20260507224116 45 315 0.0 0.0 0.00 0.00 0.00 95 1017.4
20260507224016 45 336 0.0 0.0 0.00 0.00 0.00 95 1017.4
20260507223916 45 191 0.9 0.0 0.00 0.00 0.00 95 1017.4
20260507223816 45 55 0.0 0.0 0.00 0.00 0.00 95 1017.5
20260507223716 45 103 0.0 0.0 0.00 0.00 0.00 95 1017.3
20260507223615 45 103 0.0 0.0 0.00 0.00 0.00 95 1017.5
20260507223515 45 113 0.0 0.0 0.00 0.00 0.00 95 1017.5
20260507223415 45 113 0.0 0.0 0.00 0.00 0.00 95 1017.4
20260507223315 45 113 0.0 0.0 0.00 0.00 0.00 95 1017.4
20260507223215 45 113 0.0 0.0 0.00 0.00 0.00 95 1017.4
20260507223115 45 113 0.0 0.0 0.00 0.00 0.00 95 1017.5
20260507223015 45 113 0.0 0.0 0.00 0.00 0.00 95 1017.5
20260507222915 45 113 0.0 0.0 0.00 0.00 0.00 95 1017.4
20260507222815 45 71 0.0 0.0 0.00 0.00 0.00 95 1017.4
20260507222715 45 53 0.0 0.0 0.00 0.00 0.00 95 1017.4
20260507222615 45 89 0.0 0.0 0.00 0.00 0.00 95 1017.4
20260507222515 45 76 0.0 0.0 0.00 0.00 0.00 95 1017.4
20260507222415 45 62 0.0 0.0 0.00 0.00 0.00 95 1017.4
20260507222315 45 62 0.0 0.0 0.00 0.00 0.00 94 1017.4
20260507222215 45 62 0.0 0.0 0.00 0.00 0.00 94 1017.5
20260507222115 45 68 0.9 0.0 0.00 0.00 0.00 94 1017.5
20260507222015 45 64 0.0 0.0 0.00 0.00 0.00 94 1017.4
20260507221914 45 242 0.0 0.0 0.00 0.00 0.00 94 1017.5
20260507221814 45 242 0.0 0.0 0.00 0.00 0.00 94 1017.5
20260507221714 45 242 0.0 0.0 0.00 0.00 0.00 94 1017.4
20260507221614 45 242 0.0 0.0 0.00 0.00 0.00 94 1017.4
20260507221514 45 247 0.9 0.0 0.00 0.00 0.00 94 1017.4
20260507221414 45 11 0.0 0.0 0.00 0.00 0.00 94 1017.3
20260507221314 45 325 0.0 0.0 0.00 0.00 0.00 94 1017.3
20260507221214 45 315 0.0 0.0 0.00 0.00 0.00 94 1017.4
20260507221114 45 62 0.0 0.0 0.00 0.00 0.00 94 1017.4
20260507221014 45 62 0.0 0.0 0.00 0.00 0.00 94 1017.3
20260507220914 45 89 0.0 0.0 0.00 0.00 0.00 94 1017.3
20260507220814 46 89 0.0 0.0 0.00 0.00 0.00 94 1017.2
20260507220714 46 117 0.0 0.0 0.00 0.00 0.00 93 1017.2
20260507220614 46 22 0.0 0.0 0.00 0.00 0.00 93 1017.3
20260507220514 46 22 0.0 0.0 0.00 0.00 0.00 93 1017.3
20260507220414 46 22 0.0 0.0 0.00 0.00 0.00 93 1017.3
20260507220314 46 62 0.0 0.0 0.00 0.00 0.00 93 1017.4
20260507220213 46 62 0.0 0.0 0.00 0.00 0.00 93 1017.3
20260507220113 46 62 0.0 0.0 0.00 0.00 0.00 93 1017.4
20260507220013 46 62 0.0 0.0 0.00 0.00 0.00 93 1017.4
20260507215913 46 62 0.0 0.0 0.00 0.00 0.00 93 1017.4
20260507215813 46 62 0.0 0.0 0.00 0.00 0.00 93 1017.3
20260507215713 46 62 0.0 0.0 0.00 0.00 0.00 93 1017.3
20260507215613 46 133 0.9 0.0 0.00 0.00 0.00 94 1017.3
20260507215513 46 45 0.9 0.0 0.00 0.00 0.00 93 1017.4
20260507215413 46 309 0.0 0.0 0.00 0.00 0.00 93 1017.4
20260507215313 46 113 0.0 0.0 0.00 0.00 0.00 93 1017.4
20260507215213 46 32 0.0 0.0 0.00 0.00 0.00 93 1017.4
20260507215113 46 22 0.0 0.0 0.00 0.00 0.00 93 1017.4
20260507215013 46 33 0.9 0.0 0.00 0.00 0.00 93 1017.4
20260507214913 46 6 0.0 0.0 0.00 0.00 0.00 93 1017.4
20260507214813 46 44 0.9 0.0 0.00 0.00 0.00 93 1017.4
20260507214713 46 297 0.9 0.0 0.00 0.00 0.00 93 1017.4
20260507214612 46 52 0.9 0.0 0.00 0.00 0.00 93 1017.4
20260507214512 46 83 0.9 0.0 0.00 0.00 0.00 93 1017.4
20260507214412 46 283 0.9 0.0 0.00 0.00 0.00 93 1017.4
20260507214312 46 77 0.9 0.0 0.00 0.00 0.00 93 1017.5
20260507214212 46 113 0.9 0.0 0.00 0.00 0.00 93 1017.4
20260507214112 46 55 0.0 0.0 0.00 0.00 0.00 93 1017.4
20260507214012 46 96 0.9 0.0 0.00 0.00 0.00 93 1017.4
20260507213912 46 304 0.0 0.0 0.00 0.00 0.00 93 1017.3
20260507213812 46 308 0.9 0.0 0.00 0.00 0.00 93 1017.5
20260507213712 46 307 0.9 0.0 0.00 0.00 0.00 93 1017.3
20260507213612 46 296 0.0 0.0 0.00 0.00 0.00 93 1017.4
20260507213512 46 296 0.0 0.0 0.00 0.00 0.00 93 1017.4
20260507213412 46 173 0.0 0.0 0.00 0.00 0.00 93 1017.4
20260507213312 46 174 0.0 0.0 0.00 0.00 0.00 93 1017.4
20260507213212 46 257 0.0 0.0 0.00 0.00 0.00 93 1017.5
20260507213112 46 49 0.0 0.0 0.00 0.00 0.00 93 1017.3
20260507213011 46 66 0.0 0.0 0.00 0.00 0.00 93 1017.5
20260507212911 46 157 0.0 0.0 0.00 0.00 0.00 93 1017.4
20260507212811 46 119 0.0 0.0 0.00 0.00 0.00 93 1017.4
20260507212711 46 108 0.9 0.0 0.00 0.00 0.00 93 1017.5
20260507212611 46 76 0.9 0.0 0.00 0.00 0.00 93 1017.3
20260507212511 46 283 1.7 0.0 0.00 0.00 0.00 93 1017.4
20260507212411 46 303 0.9 0.0 0.00 0.00 0.00 93 1017.4
20260507212311 46 124 0.0 0.0 0.00 0.00 0.00 93 1017.3
20260507212211 46 124 0.0 0.0 0.00 0.00 0.00 93 1017.4
20260507212111 46 354 0.0 0.0 0.00 0.00 0.00 93 1017.4
20260507212011 46 246 0.0 0.0 0.00 0.00 0.00 93 1017.3
20260507211911 46 245 0.0 0.0 0.00 0.00 0.00 93 1017.3
20260507211811 46 245 0.0 0.0 0.00 0.00 0.00 93 1017.4
20260507211711 46 245 0.0 0.0 0.00 0.00 0.00 93 1017.2
20260507211611 46 245 0.0 0.0 0.00 0.00 0.00 93 1017.2
20260507211511 46 245 0.0 0.0 0.00 0.00 0.00 93 1017.3
20260507211411 46 117 0.0 0.0 0.00 0.00 0.00 93 1017.4
20260507211310 46 117 0.0 0.0 0.00 0.00 0.00 93 1017.3
20260507211210 46 117 0.0 0.0 0.00 0.00 0.00 93 1017.3
20260507211111 46 117 0.0 0.0 0.00 0.00 0.00 93 1017.3
20260507211010 46 117 0.0 0.0 0.00 0.00 0.00 93 1017.3
20260507210910 46 322 0.0 0.0 0.00 0.00 0.00 93 1017.3
20260507210810 46 322 0.0 0.0 0.00 0.00 0.00 93 1017.2
20260507210710 46 330 0.9 0.0 0.00 0.00 0.00 93 1017.2
20260507210610 46 38 0.0 0.0 0.00 0.00 0.00 93 1017.2
20260507210510 46 44 0.0 0.0 0.00 0.00 0.00 93 1017.3
20260507210410 46 62 0.0 0.0 0.00 0.00 0.00 93 1017.2
20260507210310 46 2 0.0 0.0 0.00 0.00 0.00 93 1017.2
20260507210210 46 37 0.0 0.0 0.00 0.00 0.00 93 1017.3
20260507210110 46 37 0.0 0.0 0.00 0.00 0.00 93 1017.2
20260507210010 46 37 0.9 0.0 0.00 0.00 0.00 93 1017.2
20260507205910 46 237 0.0 0.0 0.00 0.00 0.00 93 1017.2
20260507205810 46 237 0.0 0.0 0.00 0.00 0.00 93 1017.3
20260507205709 46 237 0.0 0.0 0.00 0.00 0.00 92 1017.2
20260507205609 46 299 0.9 0.0 0.00 0.00 0.00 92 1017.2
20260507205509 46 53 0.0 0.0 0.00 0.00 0.00 92 1017.2
20260507205409 46 129 0.0 0.0 0.00 0.00 0.00 92 1017.3
20260507205309 46 117 0.0 0.0 0.00 0.00 0.00 92 1017.2
20260507205209 46 52 0.0 0.0 0.00 0.00 0.00 92 1017.3
20260507205109 46 48 0.9 0.0 0.00 0.00 0.00 92 1017.2
20260507205009 46 6 0.0 0.0 0.00 0.00 0.00 92 1017.3
20260507204909 46 217 0.0 0.0 0.00 0.00 0.00 92 1017.2
20260507204809 46 217 0.0 0.0 0.00 0.00 0.00 92 1017.2
20260507204709 46 315 0.0 0.0 0.00 0.00 0.00 92 1017.3
20260507204609 46 75 0.0 0.0 0.00 0.00 0.00 92 1017.2
20260507204509 46 88 0.0 0.0 0.00 0.00 0.00 92 1017.2
20260507204409 46 77 0.0 0.0 0.00 0.00 0.00 92 1017.2
20260507204309 46 98 0.0 0.0 0.00 0.00 0.00 92 1017.2
20260507204208 46 106 0.9 0.0 0.00 0.00 0.00 92 1017.1
20260507204108 46 256 0.0 0.0 0.00 0.00 0.00 92 1017.1
20260507204008 46 50 0.0 0.0 0.00 0.00 0.00 92 1017.2
20260507203908 46 50 0.0 0.0 0.00 0.00 0.00 92 1017.1
20260507203808 46 230 0.0 0.0 0.00 0.00 0.00 92 1017.1
20260507203708 46 174 0.0 0.0 0.00 0.00 0.00 92 1017.2
20260507203608 46 62 0.0 0.0 0.00 0.00 0.00 92 1017.1
20260507203508 46 62 0.0 0.0 0.00 0.00 0.00 92 1017.1
20260507203408 46 62 0.0 0.0 0.00 0.00 0.00 92 1017.1
20260507203308 47 62 0.0 0.0 0.00 0.00 0.00 92 1017.2
20260507203208 47 107 0.0 0.0 0.00 0.00 0.00 92 1017.1
20260507203108 47 107 0.0 0.0 0.00 0.00 0.00 92 1017.0
20260507203008 47 31 0.0 0.0 0.00 0.00 0.00 92 1017.1
20260507202908 47 309 0.0 0.0 0.00 0.00 0.00 92 1017.1
20260507202808 47 224 0.0 0.0 0.00 0.00 0.00 92 1017.1
20260507202708 47 321 0.0 0.0 0.00 0.00 0.00 92 1017.0
20260507202608 47 269 0.9 0.0 0.00 0.00 0.00 92 1017.1
20260507202507 47 269 0.0 0.0 0.00 0.00 0.00 92 1017.0
20260507202407 47 269 0.0 0.0 0.00 0.00 0.00 92 1016.8
20260507202307 47 278 0.0 0.0 0.00 0.00 0.00 92 1016.8
20260507202207 47 62 0.0 0.0 0.00 0.00 0.00 92 1017.0
20260507202107 47 53 0.0 0.0 0.00 0.00 0.00 92 1016.8
20260507202007 47 69 0.0 0.0 0.00 0.00 0.00 92 1016.8
20260507201907 47 54 0.9 0.0 0.00 0.00 0.00 92 1017.0
20260507201807 47 55 0.0 0.0 0.00 0.00 0.00 91 1017.0
20260507201707 47 42 0.9 0.0 0.00 0.00 0.00 92 1016.8
20260507201607 47 76 0.0 0.0 0.00 0.00 0.00 92 1016.8
20260507201507 47 42 0.9 0.0 0.00 0.00 0.00 92 1016.8
20260507201407 47 94 0.9 0.0 0.00 0.00 0.00 92 1016.8
20260507201307 47 68 0.9 0.0 0.00 0.00 0.00 92 1016.8
20260507201207 47 68 0.0 0.0 0.00 0.00 0.00 92 1016.8
20260507201107 47 322 0.0 0.0 0.00 0.00 0.00 92 1016.8
20260507201007 47 22 0.0 0.0 0.00 0.00 0.00 92 1016.8
20260507200906 47 230 0.0 0.0 0.00 0.00 0.00 92 1016.8
20260507200806 47 224 0.0 0.0 0.00 0.00 0.00 92 1016.8
20260507200706 47 269 0.9 0.0 0.00 0.00 0.00 92 1016.7
20260507200606 47 32 0.0 0.0 0.00 0.00 0.00 92 1016.8
20260507200506 47 202 0.0 0.0 0.00 0.00 0.00 92 1016.6
20260507200406 47 23 1.7 0.0 0.00 0.00 0.00 92 1016.7
20260507200306 47 6 0.9 0.0 0.00 0.00 0.00 92 1016.7
20260507200206 47 60 0.0 0.0 0.00 0.00 0.00 92 1016.7
20260507200106 47 54 0.0 0.0 0.00 0.00 0.00 92 1016.6
20260507200006 47 66 0.0 0.0 0.00 0.00 0.00 91 1016.7
20260507195906 47 83 0.9 0.0 0.00 0.00 0.00 92 1016.7
20260507195806 47 62 0.0 0.0 0.00 0.00 0.00 92 1016.7
20260507195706 47 44 0.0 0.0 0.00 0.00 0.00 92 1016.7
20260507195606 47 89 0.0 0.0 0.00 0.00 0.00 92 1016.6
20260507195506 47 322 0.0 0.0 0.00 0.00 0.00 92 1016.6
20260507195406 47 150 0.0 0.0 0.00 0.00 0.00 92 1016.6
20260507195306 47 243 0.0 0.0 0.00 0.00 0.00 92 1016.6
20260507195205 47 159 0.9 0.0 0.00 0.00 0.00 92 1016.6
20260507195105 47 304 0.0 0.0 0.00 0.00 0.00 91 1016.6
20260507195005 47 199 0.0 0.0 0.00 0.00 0.00 92 1016.5
20260507194905 47 323 0.9 0.0 0.00 0.00 0.00 92 1016.4
20260507194805 47 312 0.9 0.0 0.00 0.00 0.00 92 1016.5
20260507194705 47 0 0.9 0.0 0.00 0.00 0.00 91 1016.5
20260507194605 47 217 0.0 0.0 0.00 0.00 0.00 91 1016.4
20260507194505 47 224 0.0 0.0 0.00 0.00 0.00 91 1016.5
20260507194405 47 18 0.9 0.0 0.00 0.00 0.00 91 1016.4
20260507194305 47 246 0.0 0.0 0.00 0.00 0.00 91 1016.4
20260507194205 47 193 0.0 0.0 0.00 0.00 0.00 91 1016.4
20260507194105 47 212 0.0 0.0 0.00 0.00 0.00 91 1016.5
20260507194005 47 44 0.0 0.0 0.00 0.00 0.00 91 1016.5
20260507193905 47 124 0.0 0.0 0.00 0.00 0.00 91 1016.4
20260507193805 47 130 0.9 0.0 0.00 0.00 0.00 91 1016.4
20260507193705 47 47 0.0 0.0 0.00 0.00 0.00 91 1016.5
20260507193604 47 37 0.0 0.0 0.00 0.00 0.00 91 1016.5
20260507193504 47 37 0.0 0.0 0.00 0.00 0.00 91 1016.4
20260507193404 47 40 0.9 0.0 0.00 0.00 0.00 91 1016.5
20260507193304 47 281 0.9 0.0 0.00 0.00 0.00 91 1016.5
20260507193204 47 4 0.9 0.0 0.00 0.00 0.00 91 1016.4
20260507193104 47 225 0.9 0.0 0.00 0.00 0.00 91 1016.4
20260507193004 48 39 1.7 0.0 0.00 0.00 0.00 91 1016.4
20260507192904 48 242 0.0 0.0 0.00 0.00 0.00 90 1016.3
20260507192804 48 321 0.0 0.0 0.00 0.00 0.00 90 1016.4
20260507192704 48 327 0.9 0.0 0.00 0.00 0.00 90 1016.4
20260507192604 48 140 0.0 0.0 0.00 0.00 0.00 90 1016.4
20260507192504 48 51 0.9 0.0 0.00 0.00 0.00 90 1016.4
20260507192404 48 27 0.9 0.0 0.00 0.00 0.00 91 1016.4
20260507192306 48 93 0.0 0.0 0.00 0.00 0.00 90 1016.4
20260507192204 48 37 1.7 0.0 0.00 0.00 0.00 90 1016.4
20260507192104 48 123 0.9 0.0 0.00 0.00 0.00 90 1016.3
20260507192004 48 202 0.9 0.0 0.00 0.00 0.00 90 1016.3
20260507191903 48 301 0.9 0.0 0.00 0.00 0.00 90 1016.4
20260507191803 48 294 0.9 0.0 0.00 0.00 0.00 90 1016.3
20260507191703 48 229 0.9 0.0 0.00 0.00 0.00 90 1016.4
20260507191603 48 241 0.9 0.0 0.00 0.00 0.00 90 1016.4
20260507191503 48 309 0.0 0.0 0.00 0.00 0.00 90 1016.3
20260507191403 48 309 0.9 0.0 0.00 0.00 0.00 90 1016.3
20260507191303 48 25 0.9 0.0 0.00 0.00 0.00 90 1016.3
20260507191203 48 62 0.9 0.0 0.00 0.00 0.00 90 1016.4
20260507191103 48 10 0.9 0.0 0.00 0.00 0.00 90 1016.4
20260507191003 48 309 0.9 0.0 0.00 0.00 0.00 90 1016.4
20260507190903 48 7 0.9 0.0 0.00 0.00 0.00 90 1016.2
20260507190803 48 22 0.0 0.0 0.00 0.00 0.00 90 1016.3
20260507190703 48 126 0.9 0.0 0.00 0.00 0.00 90 1016.2
20260507190603 48 36 1.7 0.0 0.00 0.00 0.00 90 1016.2
20260507190503 48 331 0.9 0.0 0.00 0.00 0.00 90 1016.3
20260507190403 48 66 0.0 0.0 0.00 0.00 0.00 90 1016.3
20260507190303 48 324 0.9 0.0 0.00 0.00 0.00 90 1016.3
20260507190202 48 299 0.9 0.0 0.00 0.00 0.00 90 1016.3
20260507190004 48 353 0.9 0.0 0.00 0.00 0.00 90 1016.3
20260507185902 48 222 0.9 0.0 0.00 0.00 0.00 90 1016.2
20260507185802 48 245 0.9 0.0 0.00 0.00 0.00 90 1016.2
20260507185702 48 4 0.0 0.0 0.00 0.00 0.00 90 1016.2
20260507185602 48 201 0.9 0.0 0.00 0.00 0.00 90 1016.1
20260507185502 48 53 0.9 0.0 0.00 0.00 0.00 90 1016.1
20260507185402 48 308 0.9 0.0 0.00 0.00 0.00 90 1016.2
20260507185305 48 116 0.9 0.0 0.00 0.00 0.00 89 1015.9
20260507185202 48 223 0.9 0.0 0.00 0.00 0.00 89 1016.1
20260507185102 48 266 0.9 0.0 0.00 0.00 0.00 89 1016.2
20260507185002 48 321 0.0 0.0 0.00 0.00 0.00 89 1016.0
20260507184902 48 324 0.9 0.0 0.00 0.00 0.00 89 1016.2
20260507184802 48 124 0.9 0.0 0.00 0.00 0.00 89 1016.0
20260507184702 48 124 0.9 0.0 0.00 0.00 0.00 90 1016.1
20260507184601 48 136 0.0 0.0 0.00 0.00 0.00 90 1016.0
20260507184501 48 107 0.0 0.0 0.00 0.00 0.00 90 1016.0
20260507184401 48 296 0.0 0.0 0.00 0.00 0.00 90 1015.9
20260507184301 48 44 0.9 0.0 0.00 0.00 0.00 90 1016.0
20260507184201 48 67 0.9 0.0 0.00 0.00 0.00 90 1015.9
20260507184101 48 322 0.0 0.0 0.00 0.00 0.00 90 1015.8
20260507184001 48 336 0.0 0.0 0.00 0.00 0.00 91 1016.0
20260507183901 48 32 1.7 0.0 0.00 0.00 0.00 91 1015.9
20260507183801 48 31 0.0 0.0 0.00 0.00 0.00 91 1015.9
20260507183701 48 15 0.9 0.0 0.00 0.00 0.00 91 1015.9
20260507183601 48 62 0.0 0.0 0.00 0.00 0.00 91 1015.8
20260507183501 48 256 0.0 0.0 0.00 0.00 0.00 91 1015.9
20260507183401 48 113 0.9 0.0 0.00 0.00 0.00 91 1015.9
20260507183301 48 70 0.9 0.0 0.00 0.00 0.00 91 1015.9
20260507183201 48 207 0.0 0.0 0.00 0.00 0.00 91 1015.9
20260507183101 48 285 0.9 0.0 0.00 0.00 0.00 91 1015.8
20260507183000 48 296 0.9 0.0 0.00 0.00 0.00 91 1015.9
20260507182900 48 277 0.9 0.0 0.00 0.00 0.00 91 1015.9
20260507182800 48 53 0.0 0.0 0.00 0.00 0.00 91 1015.8
20260507182700 48 310 0.9 0.0 0.00 0.00 0.00 91 1015.8
20260507182600 48 113 0.0 0.0 0.00 0.00 0.00 91 1015.8
20260507182500 48 124 0.9 0.0 0.00 0.00 0.00 91 1015.8
20260507182400 48 66 0.0 0.0 0.00 0.00 0.00 91 1015.8
20260507182300 48 309 0.9 0.0 0.00 0.00 0.00 91 1015.9
20260507182200 48 322 0.0 0.0 0.00 0.00 0.00 91 1015.9
20260507182100 49 129 0.9 0.0 0.00 0.00 0.00 91 1015.8
20260507182000 49 29 0.9 0.0 0.00 0.00 0.00 91 1015.8
20260507181900 49 22 0.9 0.0 0.00 0.00 0.00 91 1015.8
20260507181800 49 154 0.9 0.0 0.00 0.00 0.00 91 1015.8
20260507181700 49 180 0.0 0.0 0.00 0.00 0.00 91 1015.8
20260507181600 49 297 0.9 0.0 0.00 0.00 0.00 91 1015.7
20260507181500 49 326 0.9 0.0 0.00 0.00 0.00 91 1015.8
20260507181400 49 301 0.0 0.0 0.00 0.00 0.00 91 1015.8
20260507181259 49 22 0.0 0.0 0.00 0.00 0.00 91 1015.7
20260507181159 49 314 0.9 0.0 0.00 0.00 0.00 91 1015.7
20260507181059 49 162 0.9 0.0 0.00 0.00 0.00 91 1015.6
20260507180959 49 69 0.9 0.0 0.00 0.00 0.00 91 1015.7
20260507180859 49 165 0.0 0.0 0.00 0.00 0.00 91 1015.7
20260507180759 49 21 0.9 0.0 0.00 0.00 0.00 90 1015.6
20260507180659 49 55 0.0 0.0 0.00 0.00 0.00 90 1015.7
20260507180559 49 306 0.9 0.0 0.00 0.00 0.00 91 1015.7
20260507180459 49 117 1.7 0.0 0.00 0.00 0.00 91 1015.6
20260507180359 49 307 0.0 0.0 0.00 0.00 0.00 90 1015.5
20260507180259 49 51 1.7 0.0 0.00 0.00 0.00 90 1015.6
20260507180159 49 182 0.9 0.0 0.00 0.00 0.00 90 1015.7
20260507180059 49 227 0.9 0.0 0.00 0.00 0.00 90 1015.6
20260507175959 49 212 0.0 0.0 0.00 0.00 0.00 90 1015.6
20260507175859 49 58 0.9 0.0 0.00 0.00 0.00 90 1015.6
20260507175759 49 151 0.0 0.0 0.00 0.00 0.00 90 1015.6
20260507175659 49 191 1.7 0.0 0.00 0.00 0.00 90 1015.4
20260507175558 49 114 0.9 0.0 0.00 0.00 0.00 90 1015.6
20260507175458 49 175 0.9 0.0 0.00 0.00 0.00 90 1015.5
20260507175358 49 144 0.0 0.0 0.00 0.00 0.00 90 1015.7
20260507175258 49 51 1.7 0.0 0.00 0.00 0.00 90 1015.6
20260507175158 49 215 0.9 0.0 0.00 0.00 0.00 90 1015.5
20260507175058 49 123 0.9 0.0 0.00 0.00 0.00 91 1015.5
20260507174958 49 31 1.7 0.0 0.00 0.00 0.00 91 1015.6
20260507174858 49 133 0.9 0.0 0.00 0.00 0.00 91 1015.5
20260507174758 49 125 0.0 0.0 0.00 0.00 0.00 91 1015.5
20260507174658 49 63 0.0 0.0 0.00 0.00 0.00 91 1015.5
20260507174558 49 159 0.0 0.0 0.00 0.00 0.00 91 1015.5
20260507174458 49 89 0.9 0.0 0.00 0.00 0.00 91 1015.6
20260507174358 49 207 0.9 0.0 0.00 0.00 0.00 92 1015.6
20260507174258 49 57 1.7 0.0 0.00 0.00 0.00 92 1015.5
20260507174158 49 70 0.0 0.0 0.00 0.00 0.00 92 1015.5
20260507174057 49 156 0.9 0.0 0.00 0.00 0.00 92 1015.5
20260507173957 49 139 0.0 0.0 0.00 0.00 0.00 92 1015.5
20260507173857 49 176 0.9 0.0 0.00 0.00 0.00 92 1015.5
20260507173757 49 154 0.0 0.0 0.00 0.00 0.00 92 1015.6
20260507173657 49 224 0.9 0.0 0.00 0.00 0.00 92 1015.5
20260507173557 49 269 0.9 0.0 0.00 0.00 0.00 92 1015.5
20260507173457 49 109 0.9 0.0 0.00 0.00 0.00 92 1015.5
20260507173357 49 37 0.9 0.0 0.00 0.00 0.00 92 1015.4
20260507173257 49 30 1.7 0.0 0.00 0.00 0.00 91 1015.6
20260507173157 49 84 0.9 0.0 0.00 0.00 0.00 91 1015.5
20260507173057 49 178 0.9 0.0 0.00 0.00 0.00 91 1015.4
20260507172957 49 252 1.7 0.0 0.00 0.00 0.00 91 1015.4
20260507172857 49 337 1.7 0.0 0.00 0.00 0.00 91 1015.5
20260507172757 49 208 0.9 0.0 0.00 0.00 0.00 91 1015.4
20260507172657 49 135 0.0 0.0 0.00 0.00 0.00 91 1015.4
20260507172557 49 110 0.9 0.0 0.00 0.00 0.00 90 1015.4
20260507172457 49 79 0.9 0.0 0.00 0.00 0.00 90 1015.3
20260507172356 49 221 0.9 0.0 0.00 0.00 0.00 90 1015.4
20260507172256 49 199 1.7 0.0 0.00 0.00 0.00 90 1015.4
20260507172156 49 217 0.9 0.0 0.00 0.00 0.00 90 1015.3
20260507172056 49 147 1.7 0.0 0.00 0.00 0.00 90 1015.3
20260507171956 49 172 0.0 0.0 0.00 0.00 0.00 90 1015.2
20260507171856 49 293 0.9 0.0 0.00 0.00 0.00 90 1015.3
20260507171756 49 294 0.9 0.0 0.00 0.00 0.00 90 1015.3
20260507171656 49 165 0.9 0.0 0.00 0.00 0.00 90 1015.2
20260507171556 49 173 0.9 0.0 0.00 0.00 0.00 90 1015.3
20260507171456 49 58 0.9 0.0 0.00 0.00 0.00 90 1015.1
20260507171356 49 102 0.9 0.0 0.00 0.00 0.00 90 1015.2
20260507171256 49 145 0.9 0.0 0.00 0.00 0.00 89 1015.2
20260507171156 49 242 1.7 0.0 0.00 0.00 0.00 89 1015.3
20260507171056 49 203 0.9 0.0 0.00 0.00 0.00 89 1015.2
20260507170956 49 184 0.9 0.0 0.00 0.00 0.00 89 1015.1
20260507170856 49 175 1.7 0.0 0.00 0.00 0.00 89 1015.2
20260507170755 49 146 1.7 0.0 0.00 0.00 0.00 89 1015.1
20260507170655 49 220 0.9 0.0 0.00 0.00 0.00 89 1015.1
20260507170555 49 173 0.9 0.0 0.00 0.00 0.00 89 1015.1
20260507170455 49 126 0.9 0.0 0.00 0.00 0.00 89 1015.1
20260507170355 49 133 0.9 0.0 0.00 0.00 0.00 89 1015.1
20260507170255 49 209 0.0 0.0 0.00 0.00 0.00 88 1015.1
20260507170155 49 216 0.9 0.0 0.00 0.00 0.00 88 1015.1
20260507170055 50 113 0.0 0.0 0.00 0.00 0.00 88 1015.2
20260507165955 50 219 2.6 0.0 0.00 0.00 0.00 88 1015.1
20260507165855 50 132 0.9 0.0 0.00 0.00 0.00 88 1015.0
20260507165755 50 213 1.7 0.0 0.00 0.00 0.00 88 1015.1
20260507165655 50 254 1.7 0.0 0.00 0.00 0.00 88 1015.0
20260507165555 50 250 1.7 0.0 0.00 0.00 0.00 87 1015.1
20260507165455 50 217 0.0 0.0 0.00 0.00 0.00 87 1015.0
20260507165355 50 346 2.6 0.0 0.00 0.00 0.00 87 1015.1
20260507165255 50 165 0.9 0.0 0.00 0.00 0.00 87 1014.9
20260507165154 50 132 0.9 0.0 0.00 0.00 0.00 87 1015.0
20260507165054 50 253 1.7 0.0 0.00 0.00 0.00 87 1015.1
20260507164954 50 232 1.7 0.0 0.00 0.00 0.00 87 1015.0
20260507164854 50 205 0.9 0.0 0.00 0.00 0.00 87 1015.0
20260507164754 50 197 0.9 0.0 0.00 0.00 0.00 87 1015.0
20260507164654 50 241 1.7 0.0 0.00 0.00 0.00 86 1015.1
20260507164554 50 131 1.7 0.0 0.00 0.00 0.00 86 1015.1
20260507164454 50 241 0.9 0.0 0.00 0.00 0.00 86 1015.0
20260507164354 50 232 0.9 0.0 0.00 0.00 0.00 86 1015.1
20260507164254 50 290 0.9 0.0 0.00 0.00 0.00 86 1015.1
20260507164154 50 285 0.9 0.0 0.00 0.00 0.00 85 1015.1
20260507164054 50 162 0.0 0.0 0.00 0.00 0.00 85 1015.0
20260507163954 50 204 0.9 0.0 0.00 0.00 0.00 85 1014.9
20260507163854 50 314 1.7 0.0 0.00 0.00 0.00 85 1015.0
20260507163754 50 230 0.0 0.0 0.00 0.00 0.00 85 1015.0
20260507163654 50 230 0.9 0.0 0.00 0.00 0.00 85 1015.0
20260507163554 50 316 0.0 0.0 0.00 0.00 0.00 85 1015.0
20260507163453 50 211 0.9 0.0 0.00 0.00 0.00 86 1014.9
20260507163353 50 64 0.0 0.0 0.00 0.00 0.00 85 1014.9
20260507163253 50 329 0.9 0.0 0.00 0.00 0.00 86 1014.9
20260507163153 50 36 0.9 0.0 0.00 0.00 0.00 85 1014.9
20260507163053 50 62 0.0 0.0 0.00 0.00 0.00 85 1014.9
20260507162953 50 315 0.9 0.0 0.00 0.00 0.00 86 1014.9
20260507162853 50 317 0.0 0.0 0.00 0.00 0.00 86 1014.8
20260507162753 50 69 0.9 0.0 0.00 0.00 0.00 86 1014.8
20260507162653 50 97 0.9 0.0 0.00 0.00 0.00 85 1014.9
20260507162553 50 209 0.9 0.0 0.00 0.00 0.00 85 1014.8
20260507162453 50 61 1.7 0.0 0.00 0.00 0.00 85 1014.9
20260507162353 50 4 1.7 0.0 0.00 0.00 0.00 85 1014.8
20260507162253 50 226 0.9 0.0 0.00 0.00 0.00 86 1014.8
20260507162153 50 13 0.0 0.0 0.00 0.00 0.00 86 1014.7
20260507162053 50 13 0.0 0.0 0.00 0.00 0.00 86 1014.7
20260507161953 50 13 0.0 0.0 0.00 0.00 0.00 86 1014.8
20260507161853 50 322 0.9 0.0 0.00 0.00 0.00 85 1014.8
20260507161752 50 89 0.0 0.0 0.00 0.00 0.00 86 1014.8
20260507161652 50 89 0.0 0.0 0.00 0.00 0.00 86 1014.7
20260507161552 50 245 0.9 0.0 0.00 0.00 0.00 86 1014.9
20260507161452 50 236 1.7 0.0 0.00 0.00 0.00 86 1014.8
20260507161352 50 98 0.0 0.0 0.00 0.00 0.00 86 1014.7
20260507161252 50 65 0.9 0.0 0.00 0.00 0.00 86 1014.8
20260507161152 50 130 0.0 0.0 0.00 0.00 0.00 86 1014.8
20260507161052 50 65 0.9 0.0 0.00 0.00 0.00 85 1014.8
20260507160952 50 301 0.9 0.0 0.00 0.00 0.00 85 1014.9
20260507160852 50 314 0.9 0.0 0.00 0.00 0.00 85 1014.8
20260507160752 50 333 0.0 0.0 0.00 0.00 0.00 85 1014.7
20260507160652 51 249 2.6 0.0 0.00 0.00 0.00 85 1014.9
20260507160552 51 89 1.7 0.0 0.00 0.00 0.00 85 1014.8
20260507160452 51 91 2.6 0.0 0.00 0.00 0.00 85 1014.7
20260507160352 51 88 0.9 0.0 0.00 0.00 0.00 86 1014.7
20260507160252 51 168 0.0 0.0 0.00 0.00 0.00 86 1014.8
20260507160151 51 297 0.0 0.0 0.00 0.00 0.00 86 1014.9
20260507160051 51 352 0.0 0.0 0.00 0.00 0.00 85 1014.7
20260507155951 51 162 0.9 0.0 0.00 0.00 0.00 86 1014.7
20260507155851 51 326 0.9 0.0 0.00 0.00 0.00 86 1014.7
20260507155751 51 293 1.7 0.0 0.00 0.00 0.00 86 1014.7
20260507155651 51 240 0.0 0.0 0.00 0.00 0.00 86 1014.7
20260507155551 51 279 0.9 0.0 0.00 0.00 0.00 86 1014.7
20260507155538 51 19 0.9 0.0 0.00 0.00 0.00 86 1014.6
20260507155351 51 38 0.0 0.0 0.00 0.00 0.00 85 1014.6
20260507155251 51 291 1.7 0.0 0.00 0.00 0.00 85 1014.6
20260507155151 51 171 0.9 0.0 0.00 0.00 0.00 86 1014.6
20260507155051 51 34 0.9 0.0 0.00 0.00 0.00 86 1014.7
20260507154951 51 17 0.9 0.0 0.00 0.00 0.00 86 1014.5
20260507154851 51 197 0.9 0.0 0.00 0.00 0.00 86 1014.5
20260507154751 51 212 1.7 0.0 0.00 0.00 0.00 86 1014.6
20260507154651 51 201 0.9 0.0 0.00 0.00 0.00 86 1014.6
20260507154551 51 98 1.7 0.0 0.00 0.00 0.00 86 1014.7
20260507154450 51 310 1.7 0.0 0.00 0.00 0.00 86 1014.6
20260507154350 51 227 0.9 0.0 0.00 0.00 0.00 86 1014.6
20260507154250 51 244 0.9 0.0 0.00 0.00 0.00 85 1014.5
20260507154150 51 25 1.7 0.0 0.00 0.00 0.00 86 1014.6
20260507154050 51 279 1.7 0.0 0.00 0.00 0.00 85 1014.5
20260507153950 51 148 0.9 0.0 0.00 0.00 0.00 85 1014.6
20260507153850 51 209 2.6 0.0 0.00 0.00 0.00 85 1014.5
20260507153750 51 229 1.7 0.0 0.00 0.00 0.00 85 1014.5
20260507153650 51 292 2.6 0.0 0.00 0.00 0.00 85 1014.6
20260507153550 51 226 1.7 0.0 0.00 0.00 0.00 85 1014.4
20260507153450 51 238 0.9 0.0 0.00 0.00 0.00 85 1014.5
20260507153350 51 164 0.9 0.0 0.00 0.00 0.00 85 1014.5
20260507153250 51 242 1.7 0.0 0.00 0.00 0.00 86 1014.5
20260507153150 51 186 1.7 0.0 0.00 0.00 0.00 86 1014.5
20260507153050 51 197 1.7 0.0 0.00 0.00 0.00 86 1014.3
20260507152950 51 239 1.7 0.0 0.00 0.00 0.00 86 1014.4
20260507152849 51 154 0.9 0.0 0.00 0.00 0.00 85 1014.5
20260507152749 51 241 1.7 0.0 0.00 0.00 0.00 85 1014.5
20260507152649 51 228 2.6 0.0 0.00 0.00 0.00 85 1014.4
20260507152549 51 246 4.3 0.0 0.00 0.00 0.00 85 1014.5
20260507152449 51 241 2.6 0.0 0.00 0.00 0.00 86 1014.5
20260507152349 51 317 1.7 0.0 0.00 0.00 0.00 85 1014.4
20260507152249 51 82 2.6 0.0 0.00 0.00 0.00 85 1014.5
20260507152149 51 234 1.7 0.0 0.00 0.00 0.00 85 1014.4
20260507152049 51 26 1.7 0.0 0.00 0.00 0.00 85 1014.4
20260507151949 51 41 1.7 0.0 0.00 0.00 0.00 85 1014.3
20260507151849 51 220 1.7 0.0 0.00 0.00 0.00 85 1014.4
20260507151749 51 42 3.5 0.0 0.00 0.00 0.00 85 1014.4
20260507151649 51 305 2.6 0.0 0.00 0.00 0.00 85 1014.3
20260507151549 51 335 0.9 0.0 0.00 0.00 0.00 86 1014.4
20260507151449 51 252 1.7 0.0 0.00 0.00 0.00 85 1014.3
20260507151349 51 283 1.7 0.0 0.00 0.00 0.00 86 1014.3
20260507151249 51 329 2.6 0.0 0.00 0.00 0.00 86 1014.4
20260507151148 51 169 1.7 0.0 0.00 0.00 0.00 85 1014.3
20260507151049 51 177 2.6 0.0 0.00 0.00 0.00 86 1014.4
20260507150948 51 214 3.5 0.0 0.00 0.00 0.00 86 1014.3
20260507150848 51 194 3.5 0.0 0.00 0.00 0.00 86 1014.1
20260507150748 51 192 1.7 0.0 0.00 0.00 0.00 87 1014.3
20260507150648 51 282 3.5 0.0 0.00 0.00 0.00 87 1014.3
20260507150548 51 236 1.7 0.0 0.00 0.00 0.00 87 1014.3
20260507150448 51 240 1.7 0.0 0.00 0.00 0.00 87 1014.1
20260507150348 51 236 0.9 0.0 0.00 0.00 0.00 88 1014.3
20260507150248 51 57 0.9 0.0 0.00 0.00 0.00 88 1014.3
20260507150148 51 260 0.9 0.0 0.00 0.00 0.00 87 1014.3
20260507150048 51 187 1.7 0.0 0.00 0.00 0.00 87 1014.1
20260507145948 51 136 1.7 0.0 0.00 0.00 0.00 87 1014.3
20260507145848 51 224 0.9 0.0 0.00 0.00 0.00 87 1014.1
20260507145748 51 197 2.6 0.0 0.00 0.00 0.00 87 1014.1
20260507145648 51 261 1.7 0.0 0.00 0.00 0.00 87 1014.3
20260507145547 51 100 0.9 0.0 0.00 0.00 0.00 87 1014.3
20260507145447 51 102 2.6 0.0 0.00 0.00 0.00 87 1014.3
20260507145347 51 258 1.7 0.0 0.00 0.00 0.00 88 1014.3
20260507145247 51 193 0.9 0.0 0.00 0.00 0.00 88 1014.3
20260507145147 51 278 0.9 0.0 0.00 0.00 0.00 88 1014.3
20260507145047 51 346 1.7 0.0 0.00 0.00 0.00 88 1014.3
20260507144947 51 281 1.7 0.0 0.00 0.00 0.00 88 1014.1
20260507144847 51 233 3.5 0.0 0.00 0.00 0.00 88 1014.3
20260507144747 51 264 2.6 0.0 0.00 0.00 0.00 88 1014.4
20260507144647 51 233 1.7 0.0 0.00 0.00 0.00 88 1014.3
20260507144547 51 195 1.7 0.0 0.00 0.00 0.00 88 1014.3
20260507144447 51 341 0.9 0.0 0.00 0.00 0.00 89 1014.3
20260507144347 51 277 1.7 0.0 0.00 0.00 0.00 90 1014.3
20260507144247 51 218 1.7 0.0 0.00 0.00 0.00 90 1014.3
20260507144147 51 193 0.0 0.0 0.00 0.00 0.00 90 1014.3
20260507144047 51 174 0.9 0.0 0.00 0.00 0.00 89 1014.3
20260507143946 51 265 1.7 0.0 0.00 0.00 0.00 90 1014.3
20260507143846 51 201 1.7 0.0 0.00 0.00 0.00 90 1014.1
20260507143746 51 215 0.0 0.0 0.00 0.00 0.00 90 1014.3
20260507143646 51 190 0.9 0.0 0.00 0.00 0.00 90 1014.3
20260507143546 51 214 0.9 0.0 0.00 0.00 0.00 90 1014.3
20260507143446 51 241 1.7 0.0 0.00 0.00 0.00 91 1014.1
20260507143346 51 291 0.9 0.0 0.00 0.00 0.00 90 1014.3
20260507143246 51 214 0.0 0.0 0.00 0.00 0.00 90 1014.3
20260507143146 51 301 0.9 0.0 0.00 0.00 0.00 90 1014.3
20260507143046 51 200 1.7 0.0 0.00 0.00 0.00 90 1014.1
20260507142946 51 212 1.7 0.0 0.00 0.00 0.00 90 1014.1
20260507142846 51 43 1.7 0.0 0.00 0.00 0.00 90 1014.3
20260507142746 51 173 1.7 0.0 0.00 0.00 0.00 89 1014.1
20260507142646 51 241 0.9 0.0 0.00 0.00 0.00 89 1014.1
20260507142546 51 249 1.7 0.0 0.00 0.00 0.00 89 1014.3
20260507142446 51 239 0.9 0.0 0.00 0.00 0.00 89 1014.1
20260507142346 51 16 0.9 0.0 0.00 0.00 0.00 89 1014.1
20260507142245 51 263 1.7 0.0 0.00 0.00 0.00 89 1014.1
20260507142145 51 284 1.7 0.0 0.00 0.00 0.00 89 1014.3
20260507142045 52 293 0.9 0.0 0.00 0.00 0.00 88 1014.1
20260507141945 52 84 0.9 0.0 0.00 0.00 0.00 88 1014.0
20260507141845 52 204 1.7 0.0 0.00 0.00 0.00 87 1014.1
20260507141745 52 175 1.7 0.0 0.00 0.00 0.00 86 1014.0
20260507141645 52 276 2.6 0.0 0.00 0.00 0.00 85 1014.1
20260507141545 52 273 1.7 0.0 0.00 0.00 0.00 84 1014.1
20260507141445 52 178 3.5 0.0 0.00 0.00 0.00 84 1013.9
20260507141345 52 260 0.9 0.0 0.00 0.00 0.00 84 1014.0
20260507141245 52 160 0.9 0.0 0.00 0.00 0.00 83 1013.9
20260507141145 52 208 2.6 0.0 0.00 0.00 0.00 83 1014.0
20260507141045 52 252 3.5 0.0 0.00 0.00 0.00 83 1013.9
20260507140945 52 218 2.6 0.0 0.00 0.00 0.00 84 1013.9
20260507140845 52 72 0.9 0.0 0.00 0.00 0.00 84 1013.9
20260507140745 52 276 0.9 0.0 0.00 0.00 0.00 84 1013.9
20260507140644 52 112 0.9 0.0 0.00 0.00 0.00 83 1013.9
20260507140544 52 273 1.7 0.0 0.00 0.00 0.00 83 1013.9
20260507140444 52 224 0.9 0.0 0.00 0.00 0.00 83 1013.9
20260507140344 52 274 2.6 0.0 0.00 0.00 0.00 83 1014.0
20260507140244 52 243 1.7 0.0 0.00 0.00 0.00 83 1013.9
20260507140144 52 216 3.5 0.0 0.00 0.00 0.00 83 1013.9
20260507140044 52 231 1.7 0.0 0.00 0.00 0.00 83 1014.0
20260507135944 52 228 1.7 0.0 0.00 0.00 0.00 83 1014.0
20260507135844 52 212 0.9 0.0 0.00 0.00 0.00 83 1013.9
20260507135744 52 101 1.7 0.0 0.00 0.00 0.00 84 1013.9
20260507135644 52 326 1.7 0.0 0.00 0.00 0.00 84 1014.0
20260507135544 52 15 0.9 0.0 0.00 0.00 0.00 84 1013.9
20260507135444 52 43 0.0 0.0 0.00 0.00 0.00 83 1013.9
20260507135344 52 184 0.9 0.0 0.00 0.00 0.00 83 1014.0
20260507135244 52 285 0.9 0.0 0.00 0.00 0.00 83 1014.0
20260507135144 52 247 0.9 0.0 0.00 0.00 0.00 83 1013.9
20260507135044 52 186 0.0 0.0 0.00 0.00 0.00 83 1014.0
20260507134943 53 152 0.9 0.0 0.00 0.00 0.00 84 1013.9
20260507134843 52 252 1.7 0.0 0.00 0.00 0.00 84 1013.9
20260507134743 52 288 0.9 0.0 0.00 0.00 0.00 84 1013.8
20260507134643 52 224 0.0 0.0 0.00 0.00 0.00 84 1014.0
20260507134543 52 235 0.9 0.0 0.00 0.00 0.00 84 1013.9
20260507134443 52 280 0.9 0.0 0.00 0.00 0.00 84 1013.9
20260507134343 52 104 0.9 0.0 0.00 0.00 0.00 84 1014.0
20260507134243 52 269 0.0 0.0 0.00 0.00 0.00 84 1013.9
20260507134143 52 275 0.9 0.0 0.00 0.00 0.00 84 1013.9
20260507134043 52 221 0.9 0.0 0.00 0.00 0.00 84 1013.9
20260507133943 52 201 1.7 0.0 0.00 0.00 0.00 84 1013.9
20260507133843 52 191 1.7 0.0 0.00 0.00 0.00 83 1013.9
20260507133743 52 302 0.9 0.0 0.00 0.00 0.00 83 1013.9
20260507133643 52 303 0.9 0.0 0.00 0.00 0.00 85 1014.0
20260507133543 52 219 1.7 0.0 0.00 0.00 0.00 85 1013.9
20260507133443 52 304 0.0 0.0 0.00 0.00 0.00 85 1013.9
20260507133342 52 139 0.9 0.0 0.00 0.00 0.00 85 1014.0
20260507133242 52 300 0.0 0.0 0.00 0.00 0.00 85 1013.9
20260507133142 52 91 0.9 0.0 0.00 0.00 0.00 85 1013.9
20260507133042 52 22 1.7 0.0 0.00 0.00 0.00 86 1014.0
20260507132942 51 17 2.6 0.0 0.00 0.00 0.00 86 1013.9
20260507132842 51 242 0.9 0.0 0.00 0.00 0.00 85 1013.9
20260507132742 51 329 0.0 0.0 0.00 0.00 0.00 85 1014.0
20260507132642 52 239 1.7 0.0 0.00 0.00 0.00 85 1013.9
20260507132542 52 224 1.7 0.0 0.00 0.00 0.00 86 1014.0
20260507132442 52 224 1.7 0.0 0.00 0.00 0.00 86 1013.9
20260507132342 52 228 0.9 0.0 0.00 0.00 0.00 86 1013.9
20260507132242 52 141 0.9 0.0 0.00 0.00 0.00 85 1013.8
20260507132142 52 275 2.6 0.0 0.00 0.00 0.00 86 1013.8
20260507132042 52 281 1.7 0.0 0.00 0.00 0.00 86 1013.9
20260507131942 52 193 0.9 0.0 0.00 0.00 0.00 86 1013.8
20260507131842 52 203 1.7 0.0 0.00 0.00 0.00 86 1013.9
20260507131741 52 186 0.9 0.0 0.00 0.00 0.00 85 1014.0
20260507131643 52 283 0.9 0.0 0.00 0.00 0.00 85 1013.9
20260507131541 52 218 1.7 0.0 0.00 0.00 0.00 86 1013.9
20260507131441 52 229 2.6 0.0 0.00 0.00 0.00 86 1013.8
20260507131341 52 280 0.9 0.0 0.00 0.00 0.00 86 1013.8
20260507131241 52 259 1.7 0.0 0.00 0.00 0.00 87 1013.8
20260507131141 52 330 0.9 0.0 0.00 0.00 0.00 87 1013.9
20260507131041 51 228 0.9 0.0 0.00 0.00 0.00 87 1013.8
20260507130941 51 220 1.7 0.0 0.00 0.00 0.00 87 1013.7
20260507130841 51 219 0.9 0.0 0.00 0.00 0.00 87 1013.8
20260507130741 52 212 1.7 0.0 0.00 0.00 0.00 87 1013.9
20260507130641 52 239 1.7 0.0 0.00 0.00 0.00 88 1013.8
20260507130541 51 206 1.7 0.0 0.00 0.00 0.00 87 1013.9
20260507130441 51 224 0.9 0.0 0.00 0.00 0.00 87 1013.8
20260507130341 51 349 0.9 0.0 0.00 0.00 0.00 88 1013.7
20260507130241 51 217 0.9 0.0 0.00 0.00 0.00 88 1013.7
20260507130140 51 261 1.7 0.0 0.00 0.00 0.00 88 1013.8
20260507130040 51 218 0.9 0.0 0.00 0.00 0.00 88 1013.6
20260507125940 51 269 2.6 0.0 0.00 0.00 0.00 89 1013.7
20260507125840 51 299 0.9 0.0 0.00 0.00 0.00 89 1013.6
20260507125740 51 238 0.9 0.0 0.00 0.00 0.00 89 1013.7
20260507125640 51 141 0.9 0.0 0.00 0.00 0.00 89 1013.6
20260507125540 51 288 1.7 0.0 0.00 0.00 0.00 89 1013.6
20260507125440 51 28 1.7 0.0 0.00 0.00 0.00 90 1013.7
20260507125340 51 258 0.9 0.0 0.00 0.00 0.00 90 1013.7
20260507125240 51 154 0.0 0.0 0.00 0.00 0.00 89 1013.6
20260507125140 51 265 1.7 0.0 0.00 0.00 0.00 89 1013.6
20260507125040 51 254 0.9 0.0 0.00 0.00 0.00 89 1013.6
20260507124940 51 0 0.0 0.0 0.00 0.00 0.00 90 1013.7
20260507124840 51 14 0.9 0.0 0.00 0.00 0.00 90 1013.6
20260507124740 51 37 0.9 0.0 0.00 0.00 0.00 89 1013.7
20260507124640 51 201 0.0 0.0 0.00 0.00 0.00 89 1013.6
20260507124540 51 312 0.9 0.0 0.00 0.00 0.00 89 1013.6
20260507124439 51 254 0.9 0.0 0.00 0.00 0.00 89 1013.7
20260507124339 51 218 0.0 0.0 0.00 0.00 0.00 89 1013.5
20260507124239 51 275 0.9 0.0 0.00 0.00 0.00 89 1013.6
20260507124139 51 53 0.9 0.0 0.00 0.00 0.00 89 1013.5
20260507124039 51 46 0.9 0.0 0.00 0.00 0.00 89 1013.6
20260507123939 51 141 0.0 0.0 0.00 0.00 0.00 89 1013.6
20260507123839 51 76 0.9 0.0 0.00 0.00 0.00 89 1013.6
20260507123739 51 41 0.0 0.0 0.00 0.00 0.00 89 1013.5
20260507123639 51 0 0.9 0.0 0.00 0.00 0.00 89 1013.5
20260507123539 51 32 0.0 0.0 0.00 0.00 0.00 89 1013.5
20260507123439 51 6 0.9 0.0 0.00 0.00 0.00 89 1013.4
20260507123339 51 38 0.9 0.0 0.00 0.00 0.00 88 1013.5
20260507123239 51 98 1.7 0.0 0.00 0.00 0.00 88 1013.5
20260507123139 51 132 0.9 0.0 0.00 0.00 0.00 87 1013.5
20260507123039 51 294 0.0 0.0 0.00 0.00 0.00 87 1013.6
20260507122939 51 164 1.7 0.0 0.00 0.00 0.00 86 1013.5
20260507122838 51 140 0.9 0.0 0.00 0.00 0.00 86 1013.5
20260507122738 52 358 1.7 0.0 0.00 0.00 0.00 86 1013.4
20260507122638 52 106 0.0 0.0 0.00 0.00 0.00 86 1013.4
20260507122538 52 189 0.0 0.0 0.00 0.00 0.00 86 1013.3
20260507122438 52 184 1.7 0.0 0.00 0.00 0.00 86 1013.3
20260507122338 52 54 0.9 0.0 0.00 0.00 0.00 86 1013.5
20260507122238 52 42 0.9 0.0 0.00 0.00 0.00 86 1013.3
20260507122138 52 211 0.0 0.0 0.00 0.00 0.00 87 1013.3
20260507122038 52 188 0.9 0.0 0.00 0.00 0.00 87 1013.5
20260507121938 52 38 0.0 0.0 0.00 0.00 0.00 87 1013.4
20260507121838 51 35 0.0 0.0 0.00 0.00 0.00 87 1013.4
20260507121738 51 62 0.9 0.0 0.00 0.00 0.00 87 1013.4
20260507121638 51 185 0.0 0.0 0.00 0.00 0.00 87 1013.4
20260507121538 51 50 0.9 0.0 0.00 0.00 0.00 87 1013.3
20260507121438 51 122 0.0 0.0 0.00 0.00 0.00 87 1013.4
20260507121338 51 27 0.0 0.0 0.00 0.00 0.00 87 1013.3
20260507121238 51 124 0.0 0.0 0.00 0.00 0.00 87 1013.3
20260507121137 51 42 0.9 0.0 0.00 0.00 0.00 87 1013.4
20260507121037 51 224 0.0 0.0 0.00 0.00 0.00 88 1013.4
20260507120937 51 222 1.7 0.0 0.00 0.00 0.00 89 1013.3
20260507120837 51 180 0.0 0.0 0.00 0.00 0.00 88 1013.2
20260507120737 51 293 0.9 0.0 0.00 0.00 0.00 89 1013.3
20260507120637 51 299 0.0 0.0 0.00 0.00 0.00 89 1013.2
20260507120537 51 335 0.9 0.0 0.00 0.00 0.00 89 1013.3
20260507120437 51 184 0.0 0.0 0.00 0.00 0.00 89 1013.3
20260507120337 51 323 0.9 0.0 0.00 0.00 0.00 89 1013.3
20260507120237 51 322 0.0 0.0 0.00 0.00 0.00 89 1013.3
20260507120137 51 322 0.0 0.0 0.00 0.00 0.00 90 1013.4
20260507120037 51 44 0.9 0.0 0.00 0.00 0.00 91 1013.3
20260507115937 51 135 0.9 0.0 0.00 0.00 0.00 91 1013.2
20260507115837 51 11 0.9 0.0 0.00 0.00 0.00 91 1013.4
20260507115737 51 63 0.0 0.0 0.00 0.00 0.00 91 1013.3
20260507115637 50 24 0.0 0.0 0.00 0.00 0.00 91 1013.3
20260507115536 50 25 0.0 0.0 0.00 0.00 0.00 91 1013.2
20260507115436 50 112 0.9 0.0 0.00 0.00 0.00 91 1013.3
20260507115336 50 246 0.9 0.0 0.00 0.00 0.00 91 1013.3
20260507115236 50 70 0.9 0.0 0.00 0.00 0.00 91 1013.2
20260507115136 50 103 0.9 0.0 0.00 0.00 0.00 90 1013.3
20260507115036 50 235 0.9 0.0 0.00 0.00 0.00 90 1013.2
20260507114936 50 129 0.0 0.0 0.00 0.00 0.00 90 1013.2
20260507114836 50 283 0.9 0.0 0.00 0.00 0.00 90 1013.3
20260507114736 50 6 0.0 0.0 0.00 0.00 0.00 90 1013.3
20260507114636 50 338 0.9 0.0 0.00 0.00 0.00 90 1013.3
20260507114536 50 334 1.7 0.0 0.00 0.00 0.00 91 1013.2
20260507114436 50 53 0.0 0.0 0.00 0.00 0.00 90 1013.3
20260507114336 50 235 0.0 0.0 0.00 0.00 0.00 90 1013.2
20260507114236 50 162 0.0 0.0 0.00 0.00 0.00 90 1013.2
20260507114136 50 315 0.0 0.0 0.00 0.00 0.00 90 1013.3
20260507114036 50 135 0.0 0.0 0.00 0.00 0.00 91 1013.3
20260507113936 50 101 0.9 0.0 0.00 0.00 0.00 90 1013.2
20260507113835 50 219 0.9 0.0 0.00 0.00 0.00 90 1013.1
20260507113735 50 48 0.9 0.0 0.00 0.00 0.00 90 1013.2
20260507113635 50 130 0.9 0.0 0.00 0.00 0.00 89 1013.1
20260507113536 50 22 0.9 0.0 0.00 0.00 0.00 89 1013.2
20260507113435 50 254 2.6 0.0 0.00 0.00 0.00 88 1013.2
20260507113335 50 263 0.9 0.0 0.00 0.00 0.00 88 1013.2
20260507113235 50 222 1.7 0.0 0.00 0.00 0.00 88 1013.2
20260507113135 50 222 0.9 0.0 0.00 0.00 0.00 88 1013.2
20260507113035 50 243 0.9 0.0 0.00 0.00 0.00 88 1013.2
20260507112935 50 265 1.7 0.0 0.00 0.00 0.00 88 1013.2
20260507112835 50 217 0.9 0.0 0.00 0.00 0.00 88 1013.2
20260507112735 50 221 0.9 0.0 0.00 0.00 0.00 89 1013.2
20260507112635 50 304 0.9 0.0 0.00 0.00 0.00 89 1013.2
20260507112535 50 315 1.7 0.0 0.00 0.00 0.00 89 1013.2
20260507112435 50 229 1.7 0.0 0.00 0.00 0.00 89 1013.2
20260507112335 50 218 0.0 0.0 0.00 0.00 0.00 89 1013.2
20260507112234 50 243 0.0 0.0 0.00 0.00 0.00 89 1013.2
20260507112134 50 191 0.0 0.0 0.00 0.00 0.00 89 1013.2
20260507112034 50 117 0.0 0.0 0.00 0.00 0.00 89 1013.2
20260507111934 50 57 0.9 0.0 0.00 0.00 0.00 89 1013.1
20260507111835 50 131 0.9 0.0 0.00 0.00 0.00 89 1013.1
20260507111735 50 208 0.9 0.0 0.00 0.00 0.00 89 1013.1
20260507111634 50 154 0.0 0.0 0.00 0.00 0.00 88 1013.1
20260507111534 50 89 0.0 0.0 0.00 0.00 0.00 89 1013.0
20260507111434 50 50 0.0 0.0 0.00 0.00 0.00 89 1013.1
20260507111334 50 302 0.9 0.0 0.00 0.00 0.00 89 1013.1
20260507111234 50 212 0.9 0.0 0.00 0.00 0.00 89 1013.1
20260507111134 50 229 1.7 0.0 0.00 0.00 0.00 89 1013.0
20260507111034 50 117 0.0 0.0 0.00 0.00 0.00 89 1013.1
20260507110934 50 113 0.0 0.0 0.00 0.00 0.00 89 1013.0
20260507110834 50 67 0.0 0.0 0.00 0.00 0.00 89 1013.1
20260507110734 50 100 0.9 0.0 0.00 0.00 0.00 89 1013.2
20260507110634 50 304 0.0 0.0 0.00 0.00 0.00 89 1013.1
20260507110533 50 66 0.0 0.0 0.00 0.00 0.00 89 1013.1
20260507110433 50 322 0.0 0.0 0.00 0.00 0.00 89 1013.1
20260507110333 50 322 0.0 0.0 0.00 0.00 0.00 90 1013.1
20260507110233 50 17 0.9 0.0 0.00 0.00 0.00 90 1013.1
20260507110133 50 80 0.9 0.0 0.00 0.00 0.00 89 1013.1
20260507110033 50 54 0.9 0.0 0.00 0.00 0.00 89 1013.0
20260507105933 50 186 0.9 0.0 0.00 0.00 0.00 89 1013.0
20260507105833 50 292 0.9 0.0 0.00 0.00 0.00 89 1013.1
20260507105733 50 218 0.9 0.0 0.00 0.00 0.00 89 1013.0
20260507105633 50 242 0.0 0.0 0.00 0.00 0.00 89 1013.0
20260507105533 50 242 0.0 0.0 0.00 0.00 0.00 88 1013.0
20260507105433 50 242 0.0 0.0 0.00 0.00 0.00 88 1013.0
20260507105333 50 31 0.0 0.0 0.00 0.00 0.00 88 1013.1
20260507105233 50 151 0.0 0.0 0.00 0.00 0.00 89 1013.1
20260507105133 50 69 0.0 0.0 0.00 0.00 0.00 89 1013.0
20260507105033 50 79 0.9 0.0 0.00 0.00 0.00 89 1013.1
20260507104933 50 11 0.0 0.0 0.00 0.00 0.00 89 1013.0
20260507104832 50 295 0.9 0.0 0.00 0.00 0.00 89 1013.1
20260507104732 50 13 0.9 0.0 0.00 0.00 0.00 89 1013.0
20260507104632 50 322 0.0 0.0 0.00 0.00 0.00 89 1013.0
20260507104532 50 260 0.0 0.0 0.00 0.00 0.00 89 1013.0
20260507104432 50 230 0.0 0.0 0.00 0.00 0.00 89 1012.9
20260507104332 50 278 0.0 0.0 0.00 0.00 0.00 90 1013.0
20260507104232 50 290 0.0 0.0 0.00 0.00 0.00 90 1012.9
20260507104132 50 304 0.0 0.0 0.00 0.00 0.00 89 1013.0
20260507104032 50 200 0.9 0.0 0.00 0.00 0.00 89 1012.9
20260507103932 50 77 0.0 2.6 0.00 0.00 0.00 89 1013.0
20260507103832 50 143 0.9 0.0 0.00 0.00 0.00 89 1012.9
20260507103732 50 150 0.0 0.0 0.00 0.00 0.00 89 1012.9
20260507103632 50 45 0.9 0.0 0.00 0.00 0.00 89 1013.0
20260507103532 50 81 0.9 0.0 0.00 0.00 0.00 89 1012.9
20260507103432 50 107 0.9 0.0 0.00 0.00 0.00 89 1012.9
20260507103332 50 217 0.0 0.0 0.00 0.00 0.00 89 1013.0
20260507103232 50 35 1.7 0.0 0.00 0.00 0.00 89 1012.9
20260507103131 50 89 0.9 0.0 0.00 0.00 0.00 89 1012.9
20260507103031 50 0 0.9 0.0 0.00 0.00 0.00 89 1012.9